                ,  0.301,  0.397,  0.494,  0.590,  0.687,  0.784,  0.880,  0.977,  1.073,  1.170,  1.267,  1.363,  1.460,  1.556,  1.653,  1.749,  1.846,  1.943,  2.039,  2.136,  2.232,  2.329,  2.426,  2.522,  2.619,  2.715,  2.812,  2.909,  3.005,  3.102,  3.198,  3.295,  3.392,  3.488,  3.585,  3.681,  3.778,  3.875,  3.971,  4.068,  4.164,  4.261,  4.357,  4.454,  4.551,  4.647,  4.744,  4.840,  4.937,  5.034,  5.130,  5.227,  5.323,  5.420,  5.517,  5.613,  5.710,  5.806,  5.903,  6.000,  6.096,  6.193,  6.289,  6.386,  6.483,  6.579,  6.676,  6.772,  6.869,  6.965,  7.062,  7.159,  7.255,  7.352,  7.448,  7.545,  7.642,  7.738,  7.835,  7.931
2012/03/20 00:00,  999.0,  999.0,    0.1,    0.2,    0.1,    0.1,    0.1,    0.1,   -0.3,    0.2,    0.1,   -0.1,   -0.2,    0.3,   -0.0,    0.7,    0.1,    0.2,    0.6,    1.1,    1.2,  999.0,    1.0,    0.9,    0.7,    0.4,    0.4,    0.3,    1.2,    1.5,    0.1,   -0.2,   -0.2,   -0.0,   -0.2,    0.2,    0.1,    0.1,   -0.1,   -0.1,   -0.5,    0.2,   -0.0,   -0.0,    0.0,    0.4,    0.5,   -0.2,    0.1,    0.2,    0.0,    0.0,    0.3,    0.2,   -0.1,    0.0,    0.1,    0.1,   -0.1,    0.4,    0.5,    0.3,    0.4,    0.2,   -0.0,    0.2,   -0.1,    0.3,  999.0,  999.0,  999.0,    0.1,   -0.4,    0.1,   -0.1,  999.0,  999.0,  999.0,  999.0,  999.0
2012/03/20 00:10,  999.0,  999.0,   -0.2,   -0.2,    0.2,    0.1,  999.0,  999.0,  999.0,   -0.1,   -0.1,   -0.1,   -0.1,    0.1,    0.1,    0.6,    0.4,    0.7,    1.7,    2.1,    1.3,    1.0,    1.3,    0.7,    0.2,    0.0,    0.3,    0.7,    1.0,    0.8,    0.9,    0.4,    0.3,    0.0,    0.1,    0.0,    0.1,    0.1,   -0.1,   -0.1,   -0.3,   -0.3,   -0.0,    0.0,    0.2,    0.0,   -0.3,   -0.0,   -0.0,   -0.1,    0.0,   -0.1,   -0.0,    0.2,    0.0,    0.1,    0.1,   -0.1,   -0.1,   -0.0,    0.3,    0.0,   -0.2,   -0.1,    0.0,    0.1,    0.0,   -0.1,    0.0,    0.2,    0.0,   -0.1,    0.2,  999.0,   -0.0,  999.0,  999.0,  999.0,  999.0,  999.0
2012/03/20 00:20,  999.0,   -0.1,    0.1,    0.0,   -0.0,    0.0,   -0.0,    0.0,   -0.0,   -0.2,   -0.2,   -0.0,    0.1,    0.2,    0.2,    0.4,    0.7,    0.9,    1.4,    1.2,    0.6,    0.6,    0.4,    0.3,    0.2,    0.2,    0.5,    1.1,    0.6,    0.7,    1.1,    0.2,    0.1,    0.1,   -0.0,    0.1,    0.1,    0.0,    0.0,    0.1,   -0.2,    0.0,   -0.1,   -0.1,   -0.1,   -0.0,   -0.1,   -0.0,    0.1,   -0.0,    0.2,   -0.0,   -0.0,   -0.1,    0.0,   -0.1,   -0.1,   -0.1,   -0.1,   -0.1,   -0.1,    0.3,   -0.0,   -0.1,    0.2,   -0.0,    0.0,    0.2,    0.2,   -0.0,    0.1,   -0.0,    0.2,    0.2,    0.5,  999.0,  999.0,  999.0,  999.0,  999.0
2012/03/20 00:30,  999.0,   -0.4,    0.0,   -0.3,    0.1,    0.1,    0.0,   -0.1,    0.0,    0.0,   -0.1,    0.1,    0.3,    0.7,    0.7,    1.5,    2.1,    1.8,    1.3,    0.7,    0.4,    0.5,    0.2,   -0.1,    0.1,    0.3,    0.1,    0.4,    1.3,    1.9,    0.6,   -0.0,    0.0,   -0.2,   -0.1,    0.0,   -0.0,   -0.1,   -0.2,   -0.1,   -0.4,   -0.1,   -0.1,   -0.1,    0.2,   -0.1,    0.1,    0.1,    0.0,    0.1,    0.1,    0.1,    0.0,   -0.2,   -0.1,    0.0,   -0.2,    0.0,   -0.1,    0.0,   -0.3,   -0.1,   -0.1,    0.2,    0.2,   -0.0,    0.1,    0.1,    0.1,    0.1,    0.3,   -0.1,    0.1,   -0.1,  999.0,  999.0,  999.0,  999.0,  999.0,  999.0
2012/03/20 00:40,  999.0,  999.0,  999.0,  999.0,  999.0,  999.0,  999.0,  999.0,  999.0,    0.1,    0.1,   -0.0,    0.4,    0.9,    1.3,    1.5,    2.3,    1.7,    1.1,    1.1,    1.2,    0.4,    0.4,    0.4,    0.1,    0.1,    0.2,    0.5,    0.3,    0.3,   -0.0,    0.1,   -0.0,    0.2,   -0.1,   -0.2,   -0.2,   -0.1,   -0.1,    0.1,   -0.2,   -0.0,    0.1,    0.0,    0.0,   -0.1,   -0.1,   -0.0,   -0.1,    0.0,    0.1,    0.0,   -0.0,    0.0,    0.0,    0.2,    0.1,   -0.0,   -0.0,    0.2,   -0.1,    0.0,    0.1,    0.2,    0.1,    0.0,    0.1,    0.1,   -0.0,    0.0,  999.0,  999.0,    0.0,    0.3,   -0.0,  999.0,  999.0,  999.0,  999.0,  999.0
2012/03/20 00:50,  999.0,   -0.1,   -0.3,   -0.1,    0.1,   -0.1,    0.0,    0.1,   -0.1,    0.1,   -0.1,    0.5,    0.7,    1.5,  999.0,    2.0,    2.0,    1.9,    1.4,    1.1,  999.0,    0.9,    1.2,    0.3,    0.3,   -0.1,    0.8,    0.9,    1.1,    1.0,    0.5,    0.1,    0.1,    0.3,   -0.1,    0.2,    0.3,    0.1,    0.3,    0.1,   -0.4,   -0.4,   -0.2,   -0.0,    0.1,   -0.1,    0.0,   -0.0,    0.1,   -0.0,   -0.2,   -0.1,   -0.1,   -0.0,   -0.1,   -0.0,   -0.0,    0.1,   -0.2,    0.2,   -0.0,   -0.1,   -0.1,   -0.1,    0.1,    0.2,    0.2,    0.2,    0.0,   -0.1,    0.2,  999.0,  999.0,  999.0,    0.4,  999.0,  999.0,  999.0,  999.0,  999.0
2012/03/20 01:00,  999.0,  999.0,   -0.0,   -0.1,   -0.1,   -0.1,   -0.0,   -0.1,    0.0,    0.1,    0.0,   -0.2,    0.4,    0.4,    0.1,    0.3,    0.4,    0.8,    1.0,    0.8,    0.5,    0.5,    0.3,    0.6,    0.3,   -0.0,    0.9,    0.8,    0.4,    1.0,    0.3,   -0.0,    0.1,    0.0,   -0.2,   -0.2,   -0.0,   -0.1,   -0.1,   -0.3,   -0.4,   -0.3,   -0.3,    0.0,   -0.2,   -0.1,   -0.2,    0.0,   -0.1,    0.1,    0.1,   -0.2,   -0.0,    0.1,   -0.0,    0.0,   -0.2,   -0.1,   -0.1,    0.0,   -0.0,   -0.0,    0.1,   -0.1,    0.1,    0.0,    0.1,   -0.1,    0.1,  999.0,   -0.1,  999.0,  999.0,  999.0,  999.0,  999.0,  999.0,  999.0,  999.0,  999.0
2012/03/20 01:10,  999.0,  999.0,    0.0,   -0.1,   -0.0,    0.1,    0.0,    0.0,   -0.0,   -0.0,    0.4,    0.5,    1.0,    1.3,    1.3,    1.2,    1.8,    2.4,    1.5,    0.7,    0.3,    0.5,    0.1,    0.5,    0.1,    0.4,    0.9,    0.4,    0.5,    0.7,    0.3,    0.1,    0.2,   -0.0,    0.0,    0.1,   -0.1,   -0.1,   -0.2,    0.1,   -0.2,    0.1,    0.0,   -0.1,    0.1,    0.1,    0.1,    0.0,    0.2,    0.1,   -0.1,   -0.0,    0.0,   -0.1,   -0.0,   -0.1,   -0.1,    0.0,   -0.0,   -0.1,   -0.1,    0.0,    0.1,    0.1,   -0.1,    0.0,    0.3,   -0.3,  999.0,  999.0,    0.0,    0.1,  999.0,    0.0,  999.0,  999.0,  999.0,  999.0,  999.0,  999.0
2012/03/20 01:20,  999.0,  999.0,   -0.0,   -0.2,    0.1,    0.2,    0.1,   -0.1,   -0.1,    0.0,    0.4,    0.3,    1.0,    0.8,    2.0,    2.3,    3.1,    1.5,    0.8,    0.7,    0.6,    0.7,    0.5,    0.4,    0.1,    0.1,    1.3,    2.2,    2.4,    0.8,    0.4,    0.1,   -0.1,   -0.2,    0.1,    0.2,    0.2,    0.1,    0.2,   -0.0,   -0.2,   -0.1,   -0.0,    0.0,    0.0,    0.0,    0.0,    0.1,    0.2,    0.0,   -0.0,   -0.0,    0.2,    0.1,   -0.1,    0.1,    0.2,    0.3,    0.1,    0.2,    0.1,    0.0,    0.1,    0.1,    0.1,    0.0,  999.0,    0.2,  999.0,   -0.4,  999.0,  999.0,  999.0,   -0.0,  999.0,  999.0,  999.0,  999.0,  999.0,  999.0
2012/03/20 01:30,  999.0,   -0.0,    0.1,   -0.0,   -0.0,   -0.1,   -0.1,    0.0,    0.2,    0.2,   -0.0,    0.2,    0.3,    0.8,    0.8,    0.7,    1.8,    1.9,    0.8,    0.3,    0.4,    0.6,    0.6,    0.7,    0.2,    0.4,    1.2,    2.4,    1.8,    1.0,    0.3,   -0.0,    0.1,    0.0,    0.0,    0.0,   -0.1,   -0.0,   -0.0,   -0.0,   -0.4,   -0.1,    0.1,   -0.1,   -0.1,   -0.2,   -0.1,   -0.1,    0.1,    0.0,    0.0,   -0.0,   -0.4,   -0.0,    0.2,    0.1,    0.1,   -0.4,    0.1,   -0.2,    0.0,    0.0,    0.1,    0.1,    0.0,    0.0,    0.1,   -0.2,   -0.3,  999.0,    0.0,    0.1,    0.1,   -0.3,   -0.2,  999.0,  999.0,  999.0,  999.0,  999.0
2012/03/20 01:40,  999.0,  999.0,    0.1,    0.1,    0.1,    0.1,   -0.3,   -0.4,    0.0,    0.4,    0.4,    0.5,    0.7,    0.7,    0.9,    0.9,    1.4,    1.2,    0.6,    0.4,    0.6,    1.1,    0.6,    0.6,    0.3,    0.8,    2.0,    2.9,    0.5,   -0.1,    0.1,   -0.1,   -0.1,   -0.1,    0.2,    0.0,    0.1,   -0.0,    0.1,    0.0,   -0.2,   -0.1,    0.2,   -0.0,    0.0,   -0.1,   -0.0,    0.0,    0.2,    0.0,   -0.1,   -0.1,   -0.1,    0.0,   -0.0,   -0.1,   -0.1,   -0.1,    0.0,   -0.1,   -0.1,    0.0,    0.2,    0.1,    0.2,   -0.1,   -0.0,   -0.4,   -0.7,   -0.4,   -0.1,   -0.3,   -0.4,   -0.1,   -0.1,  999.0,  999.0,  999.0,  999.0,  999.0
2012/03/20 01:50,  999.0,  999.0,   -0.1,   -0.0,    0.1,   -0.3,    0.1,    0.2,    0.1,    0.1,    0.6,    0.0,    0.1,    0.2,    0.4,    0.5,    0.5,    0.3,    0.4,    0.4,    0.5,    0.2,    0.1,    0.1,    0.8,    0.7,    1.3,    0.7,    0.3,   -0.1,    0.2,    0.1,    0.2,    0.1,    0.0,   -0.1,   -0.0,    0.0,    0.0,    0.0,   -0.2,   -0.4,   -0.1,   -0.1,   -0.0,   -0.0,    0.1,   -0.2,    0.1,    0.1,    0.0,    0.1,   -0.1,   -0.1,    0.1,   -0.0,   -0.2,   -0.0,   -0.2,   -0.2,   -0.1,    0.1,   -0.0,    0.1,   -0.0,    0.2,    0.3,    0.2,    0.1,   -0.1,    0.1,   -0.1,   -0.1,    0.0,   -0.5,  999.0,  999.0,  999.0,  999.0,  999.0
2012/03/20 02:00,  999.0,  999.0,    0.3,    0.1,    0.1,   -0.0,   -0.1,   -0.1,    0.0,    0.2,    0.3,    0.3,    0.3,    0.5,    0.6,    0.8,    0.8,    0.4,    0.4,    0.2,    0.5,    0.9,    1.2,    0.6,    1.0,    1.7,    2.2,    1.6,    0.8,    0.5,    0.1,    0.1,    0.0,   -0.0,    0.0,    0.1,   -0.1,    0.1,    0.1,    0.1,   -0.3,   -0.1,    0.0,   -0.1,   -0.0,    0.2,    0.1,    0.1,    0.2,    0.1,    0.1,    0.0,    0.0,    0.1,    0.1,   -0.0,    0.0,    0.0,   -0.0,   -0.1,   -0.2,   -0.2,   -0.0,   -0.0,    0.1,    0.0,   -0.1,   -0.0,   -0.2,    0.4,    0.4,    0.2,  999.0,  999.0,    0.1,  999.0,  999.0,  999.0,  999.0,  999.0
2012/03/20 02:10,  999.0,  999.0,   -0.0,   -0.2,   -0.1,  999.0,  999.0,  999.0,  999.0,    0.0,   -0.0,    0.1,    0.5,    0.5,    0.7,    1.0,    1.1,    1.0,    0.8,    0.8,    0.6,    0.5,    0.3,    0.5,    0.7,    0.5,    0.8,    2.2,    2.2,    1.1,    0.3,    0.1,    0.2,    0.3,    0.1,    0.1,    0.1,    0.1,    0.0,    0.1,   -0.2,   -0.2,    0.0,    0.2,    0.1,    0.0,   -0.0,    0.1,    0.2,    0.1,    0.0,   -0.0,    0.0,   -0.0,   -0.0,   -0.1,    0.0,   -0.0,   -0.1,    0.0,    0.0,    0.1,    0.1,   -0.0,    0.1,   -0.0,    0.2,   -0.1,   -0.1,   -0.1,    0.4,  999.0,  999.0,  999.0,   -0.1,  999.0,  999.0,  999.0,  999.0,  999.0
2012/03/20 02:20,  999.0,    0.1,    0.0,    0.0,    0.1,    0.1,    0.0,   -0.0,    0.1,    0.0,   -0.1,    0.1,    0.2,    0.2,    0.3,    0.4,    0.9,    0.8,    0.4,    0.5,    0.4,    0.5,    0.9,    0.4,    0.1,    0.3,    1.0,    2.0,    1.8,    1.3,    0.4,   -0.1,   -0.0,    0.1,    0.0,   -0.2,    0.1,    0.0,   -0.1,   -0.0,   -0.3,   -0.1,    0.1,    0.0,   -0.0,    0.1,    0.2,    0.1,   -0.0,    0.1,    0.1,    0.1,   -0.1,    0.0,    0.0,    0.0,   -0.3,    0.2,   -0.0,    0.1,   -0.0,    0.2,   -0.2,    0.1,   -0.0,    0.2,   -0.1,   -0.1,    0.0,   -0.1,   -0.4,   -0.2,    0.1,    0.3,   -0.0,  999.0,  999.0,  999.0,  999.0,  999.0
2012/03/20 02:30,  999.0,  999.0,   -0.0,    0.1,    0.1,    0.0,    0.0,    0.1,  999.0,    0.1,    0.2,    0.5,    0.5,    0.3,    0.3,    0.4,    0.6,    0.4,    0.3,    0.5,    0.6,    0.9,    0.7,    0.2,    0.2,    0.3,    0.9,    0.6,    1.1,    0.5,    0.2,   -0.0,    0.1,    0.3,    0.1,   -0.0,    0.0,    0.1,    0.1,    0.1,   -0.1,   -0.2,   -0.0,   -0.1,   -0.1,   -0.0,   -0.0,    0.1,   -0.0,    0.0,    0.1,    0.2,   -0.1,    0.1,    0.0,   -0.2,   -0.0,    0.0,   -0.1,   -0.0,   -0.1,   -0.2,   -0.1,    0.1,   -0.3,    0.2,    0.1,   -0.1,    0.1,    0.1,    0.3,  999.0,    0.1,    0.2,    0.2,  999.0,  999.0,  999.0,  999.0,  999.0
2012/03/20 02:40,  999.0,  999.0,   -0.1,    0.2,    0.1,    0.1,    0.1,  999.0,  999.0,    0.1,    0.1,    0.1,    0.1,    0.3,    0.4,    0.8,    0.8,    0.8,    0.7,    1.0,    0.6,    0.7,    0.3,    0.2,    0.2,    0.6,    0.5,    0.5,    0.2,    0.2,    0.4,    0.3,    0.0,    0.1,    0.2,    0.0,    0.0,    0.1,   -0.0,    0.1,   -0.1,   -0.2,   -0.2,    0.1,    0.1,   -0.0,   -0.1,   -0.1,    0.0,   -0.0,   -0.0,   -0.0,   -0.2,    0.0,    0.1,    0.1,   -0.0,   -0.0,    0.1,   -0.1,   -0.0,    0.1,   -0.2,   -0.1,   -0.0,    0.0,   -0.1,    0.1,    0.0,  999.0,    0.2,   -0.2,    0.3,   -0.1,    0.2,  999.0,   -0.1,  999.0,  999.0,  999.0
2012/03/20 02:50,  999.0,  999.0,    0.1,    0.1,    0.1,    0.0,   -0.0,    0.0,    0.2,    0.1,    0.2,    0.1,    0.2,   -0.0,    0.3,    0.7,    0.4,    0.3,    0.7,    0.6,    0.7,    0.7,    0.9,    0.5,    0.2,    1.1,    1.9,    0.7,    0.5,    0.2,    1.6,    0.7,   -0.1,   -0.1,   -0.0,    0.2,    0.0,   -0.1,    0.1,   -0.1,   -0.2,   -0.1,   -0.0,   -0.1,   -0.1,   -0.1,    0.0,   -0.0,    0.1,    0.2,    0.0,    0.0,   -0.1,   -0.4,    0.1,    0.0,   -0.1,   -0.1,   -0.2,   -0.1,   -0.0,    0.1,   -0.3,    0.1,   -0.1,    0.2,    0.1,   -0.2,   -0.1,    0.0,   -0.1,   -0.1,  999.0,  999.0,   -0.0,  999.0,  999.0,  999.0,  999.0,  999.0
2012/03/20 03:00,  999.0,  999.0,    0.0,   -0.1,   -0.1,   -0.1,   -0.0,    0.2,    0.2,    0.3,   -0.0,    0.1,    0.1,    0.2,    0.1,    0.0,    0.6,    0.6,    0.8,    1.3,    1.2,    1.0,    0.8,    0.0,    0.3,   -0.1,    0.3,    0.3,    0.5,    1.9,    2.1,    0.2,    0.1,    0.2,    0.1,   -0.1,    0.0,   -0.1,   -0.2,   -0.0,   -0.4,   -0.1,    0.0,    0.0,    0.1,    0.0,   -0.1,    0.0,   -0.1,   -0.1,   -0.2,   -0.1,    0.1,    0.0,    0.2,    0.0,    0.1,   -0.0,    0.0,    0.1,   -0.1,   -0.0,    0.2,    0.0,    0.1,    0.1,    0.2,   -0.1,    0.2,    0.6,    0.1,    0.3,    0.2,    0.0,  999.0,    0.1,  999.0,  999.0,  999.0,  999.0
2012/03/20 03:10,  999.0,  999.0,   -0.0,    0.3,    0.2,    0.2,    0.1,   -0.1,    0.1,    0.0,    0.0,   -0.1,    0.2,    0.2,    0.1,   -0.0,    0.1,    0.2,    0.4,    0.7,    0.9,    1.7,    1.2,    0.8,    0.6,    0.2,    0.3,    1.2,    1.1,    1.7,    0.7,   -0.0,   -0.1,   -0.1,   -0.2,    0.2,   -0.0,   -0.1,   -0.0,   -0.0,   -0.0,   -0.1,   -0.1,   -0.1,   -0.1,   -0.1,   -0.0,   -0.1,   -0.2,    0.0,    0.0,   -0.3,   -0.2,   -0.0,    0.0,   -0.0,    0.1,    0.1,    0.2,    0.2,    0.2,    0.2,   -0.0,   -0.1,    0.1,    0.3,    0.2,   -0.1,    0.2,   -0.4,    0.1,  999.0,    0.0,  999.0,    0.3,  999.0,  999.0,  999.0,  999.0,  999.0
2012/03/20 03:20,  999.0,  999.0,   -0.0,    0.2,   -0.0,   -0.0,    0.0,    0.1,    0.1,   -0.0,   -0.0,   -0.2,   -0.2,   -0.2,   -0.1,    0.0,    0.4,    0.5,    0.5,    0.6,    0.6,    1.1,    1.0,    0.9,    0.2,    0.1,   -0.1,    0.6,    1.6,    1.1,    1.1,    0.4,    0.1,   -0.0,    0.1,   -0.0,   -0.1,    0.1,    0.1,   -0.2,   -0.1,    0.2,    0.0,   -0.2,   -0.1,   -0.1,    0.0,    0.0,    0.0,   -0.0,   -0.1,    0.1,   -0.0,    0.0,   -0.1,   -0.0,    0.1,    0.1,   -0.0,   -0.1,   -0.1,   -0.1,   -0.0,    0.2,    0.2,    0.3,    0.0,   -0.0,  999.0,   -0.2,   -0.1,  999.0,  999.0,  999.0,    0.2,  999.0,  999.0,  999.0,  999.0,  999.0
2012/03/20 03:30,  999.0,  999.0,    0.1,    0.5,   -0.0,    0.5,  999.0,  999.0,  999.0,    0.1,    0.0,    0.0,    0.1,   -0.1,   -0.0,    0.2,    0.1,    0.1,    0.1,    0.2,    0.1,    0.6,    1.0,    0.3,    0.2,    0.3,    0.2,    1.0,    1.2,    0.3,   -0.0,   -0.1,    0.2,    0.2,   -0.1,   -0.2,   -0.0,   -0.0,   -0.1,   -0.0,   -0.3,   -0.1,    0.0,   -0.1,   -0.1,   -0.1,   -0.0,   -0.0,    0.1,   -0.1,    0.0,   -0.2,   -0.0,   -0.1,    0.0,    0.0,    0.2,   -0.1,   -0.1,    0.1,   -0.2,    0.0,    0.2,    0.2,    0.2,    0.1,    0.1,   -0.0,    0.1,   -0.1,    0.0,  999.0,   -0.1,  999.0,    0.1,  999.0,  999.0,  999.0,  999.0,  999.0
2012/03/20 03:40,  999.0,  999.0,    0.1,   -0.0,   -0.0,    0.1,  999.0,  999.0,    0.1,   -0.0,    0.2,   -0.0,    0.1,    0.1,    0.2,    0.1,    0.3,    0.4,    0.2,    0.2,    0.1,    0.6,    0.6,    0.4,    0.3,    0.2,    0.6,    1.0,    0.2,   -0.1,   -0.2,   -0.1,   -0.2,   -0.0,   -0.1,   -0.0,    0.0,   -0.1,   -0.1,   -0.1,   -0.0,   -0.1,   -0.1,   -0.0,    0.1,    0.1,    0.1,   -0.0,   -0.1,    0.1,    0.1,   -0.0,    0.0,    0.0,    0.0,    0.0,   -0.1,    0.0,    0.2,   -0.0,    0.1,   -0.1,   -0.2,   -0.2,    0.2,    0.0,   -0.0,   -0.1,   -0.2,   -0.0,   -0.1,    0.1,   -0.0,   -0.2,   -0.2,  999.0,  999.0,  999.0,  999.0,  999.0
2012/03/20 03:50,  999.0,  999.0,    0.2,    0.0,   -0.0,    0.1,  999.0,  999.0,    0.1,   -0.0,   -0.1,    0.0,    0.1,    0.0,   -0.1,   -0.1,    0.0,    0.1,   -0.1,    0.1,   -0.0,    0.1,    0.2,    0.3,    0.1,    0.2,    0.3,    0.4,    0.2,    0.0,    0.1,   -0.3,    0.1,   -0.0,   -0.1,   -0.2,   -0.0,    0.0,    0.2,   -0.1,   -0.2,   -0.0,   -0.1,    0.1,    0.0,   -0.0,   -0.2,    0.0,   -0.1,   -0.1,   -0.1,   -0.0,   -0.0,   -0.1,    0.0,   -0.0,   -0.0,   -0.0,   -0.0,    0.0,    0.1,   -0.0,    0.0,    0.2,   -0.2,   -0.1,   -0.1,    0.1,   -0.2,   -0.1,  999.0,   -0.2,    0.1,   -0.1,   -0.1,  999.0,  999.0,  999.0,  999.0,  999.0
2012/03/20 04:00,  999.0,  999.0,   -0.2,   -0.0,   -0.1,   -0.0,   -0.1,   -0.0,    0.0,   -0.1,    0.2,    0.2,    0.1,    0.1,   -0.0,   -0.1,   -0.1,   -0.1,   -0.0,    0.1,    0.2,    0.2,    0.2,    0.2,    0.1,    0.3,    0.3,    0.2,   -0.1,    0.1,   -0.2,    0.2,    0.1,    0.0,   -0.1,    0.0,   -0.0,   -0.2,    0.0,   -0.0,   -0.0,    0.0,    0.0,    0.0,    0.0,   -0.0,   -0.0,   -0.0,    0.0,    0.1,    0.0,    0.2,    0.0,    0.0,    0.0,    0.1,    0.1,   -0.0,    0.1,   -0.0,   -0.2,   -0.1,   -0.2,    0.0,    0.1,    0.1,    0.3,    0.0,   -0.0,    0.0,  999.0,  999.0,    0.0,   -0.1,    0.0,  999.0,  999.0,  999.0,  999.0,  999.0
2012/03/20 04:10,  999.0,  999.0,   -0.1,   -0.1,    0.1,   -0.0,   -0.0,  999.0,   -0.2,   -0.1,    0.1,    0.1,   -0.1,   -0.0,   -0.1,   -0.1,    0.1,   -0.0,    0.1,   -0.0,    0.2,    0.5,    0.3,    0.2,    0.1,    0.4,    0.2,    0.1,   -0.1,   -0.1,   -0.0,   -0.1,   -0.1,   -0.0,   -0.1,   -0.2,   -0.1,   -0.1,    0.0,   -0.2,   -0.1,   -0.1,   -0.0,   -0.0,   -0.0,   -0.0,   -0.0,   -0.0,   -0.0,    0.0,    0.0,    0.1,    0.0,    0.0,    0.0,   -0.1,    0.1,    0.2,    0.1,   -0.2,   -0.1,   -0.0,   -0.1,    0.0,    0.1,    0.1,  999.0,    0.1,   -0.1,   -0.1,   -0.5,    0.1,    0.1,  999.0,   -0.0,  999.0,  999.0,  999.0,  999.0,  999.0
2012/03/20 04:20,  999.0,  999.0,  999.0,    0.1,   -0.0,   -0.1,   -0.0,    0.0,   -0.1,   -0.0,   -0.0,   -0.1,   -0.1,   -0.0,   -0.0,   -0.2,   -0.2,   -0.1,   -0.1,   -0.1,   -0.1,   -0.2,   -0.2,    0.1,    0.2,   -0.1,    0.0,   -0.2,    0.1,   -0.2,   -0.8,   -0.4,   -0.0,    0.0,   -0.2,   -0.1,   -0.0,    0.0,    0.0,    0.1,   -0.1,   -0.0,    0.0,   -0.0,    0.0,    0.1,    0.2,    0.1,    0.0,   -0.1,   -0.1,   -0.1,   -0.0,    0.0,   -0.0,   -0.1,   -0.1,    0.1,   -0.2,   -0.0,   -0.0,   -0.2,   -0.4,    0.1,   -0.0,   -0.1,    0.0,   -0.1,  999.0,   -0.0,   -0.1,  999.0,   -0.1,  999.0,   -0.1,  999.0,  999.0,  999.0,  999.0,  999.0
2012/03/20 04:30,  999.0,  999.0,   -0.0,    0.1,    0.1,    0.1,    0.0,    0.1,  999.0,    0.1,    0.0,   -0.1,    0.1,    0.0,   -0.0,    0.1,   -0.0,   -0.0,   -0.2,    0.1,    0.0,   -0.1,   -0.1,    0.1,   -0.1,    0.2,    0.1,   -0.0,   -0.1,   -0.4,   -0.2,   -0.0,   -0.0,   -0.1,   -0.1,   -0.0,   -0.1,   -0.1,    0.1,   -0.1,   -0.1,   -0.1,   -0.0,    0.0,    0.0,   -0.1,   -0.1,   -0.0,    0.1,   -0.1,    0.1,    0.1,   -0.1,    0.0,   -0.2,   -0.1,   -0.1,    0.0,   -0.0,    0.1,    0.2,    0.0,    0.1,    0.1,   -0.2,   -0.0,    0.0,    0.4,   -0.1,   -0.4,  999.0,   -0.3,   -0.1,    0.0,   -0.0,  999.0,  999.0,  999.0,  999.0,  999.0
2012/03/20 04:40,  999.0,  999.0,    0.0,   -0.1,   -0.0,   -0.0,   -0.0,  999.0,    0.0,    0.2,    0.0,   -0.0,   -0.1,   -0.1,   -0.0,   -0.1,   -0.0,   -0.2,   -0.3,   -0.1,   -0.1,    0.0,   -0.0,    0.1,    0.2,    0.2,   -0.0,   -0.2,   -0.5,   -0.2,    0.1,   -0.0,    0.0,   -0.0,   -0.0,   -0.0,   -0.1,   -0.1,   -0.0,   -0.1,   -0.0,   -0.1,    0.0,    0.1,   -0.1,    0.0,   -0.1,    0.0,    0.1,    0.2,    0.1,    0.1,    0.0,    0.1,    0.1,   -0.0,    0.0,   -0.1,   -0.1,    0.1,    0.2,   -0.0,   -0.1,   -0.0,   -0.2,    0.0,    0.1,   -0.1,   -0.1,   -0.1,   -0.3,   -0.0,    0.0,    0.2,   -0.1,  999.0,  999.0,  999.0,  999.0,  999.0
2012/03/20 04:50,  999.0,  999.0,  999.0,    0.0,  999.0,    0.0,  999.0,  999.0,  999.0,    0.1,    0.1,    0.1,    0.0,   -0.1,   -0.0,   -0.0,   -0.2,   -0.5,   -0.3,   -0.3,   -0.0,    0.0,    0.0,    0.1,   -0.0,   -0.0,   -0.1,   -0.5,   -0.3,   -0.0,    0.2,   -0.1,   -0.0,   -0.1,   -0.0,    0.1,    0.0,    0.0,   -0.2,   -0.1,   -0.1,   -0.1,   -0.1,   -0.1,    0.0,   -0.1,    0.1,   -0.1,   -0.0,    0.0,    0.1,    0.1,    0.1,    0.2,    0.2,   -0.0,    0.2,   -0.0,    0.0,    0.1,   -0.0,   -0.3,    0.2,    0.2,    0.1,    0.4,    0.1,   -0.2,   -0.2,   -0.1,  999.0,    0.1,   -0.1,   -0.1,   -0.1,  999.0,  999.0,  999.0,  999.0,  999.0
2012/03/20 05:00,  999.0,  999.0,    0.3,   -0.2,   -0.1,  999.0,  999.0,  999.0,  999.0,   -0.2,   -0.3,   -0.2,   -0.2,   -0.1,   -0.1,   -0.1,   -0.5,   -0.5,   -0.4,   -0.2,   -0.1,   -0.2,   -0.0,   -0.0,   -0.3,   -0.2,   -0.4,   -0.3,   -0.2,   -0.2,   -0.0,    0.0,   -0.1,   -0.1,   -0.1,   -0.0,   -0.0,    0.1,   -0.0,    0.1,   -0.3,   -0.0,    0.0,    0.2,    0.0,   -0.1,    0.1,    0.1,   -0.0,    0.0,   -0.0,    0.2,    0.1,   -0.1,   -0.1,    0.0,    0.0,   -0.1,    0.2,    0.1,   -0.1,   -0.0,    0.1,    0.3,   -0.1,    0.0,   -0.2,   -0.1,    0.1,    0.2,   -0.1,    0.1,    0.0,    0.2,   -0.2,  999.0,  999.0,  999.0,  999.0,  999.0
2012/03/20 05:10,  999.0,  999.0,    0.1,    0.0,  999.0,   -0.1,  999.0,  999.0,    0.1,    0.1,   -0.1,    0.0,  999.0,   -0.2,  999.0,  999.0,  999.0,  999.0,   -0.2,    0.0,   -0.4,   -0.3,   -0.1,   -0.1,   -0.2,   -0.5,   -0.3,   -0.8,   -0.0,   -0.2,   -0.0,   -0.1,   -0.0,   -0.1,    0.1,    0.1,    0.1,   -0.0,    0.1,    0.2,   -0.2,   -0.1,    0.0,   -0.0,    0.1,   -0.0,   -0.2,   -0.1,    0.1,   -0.0,    0.0,    0.2,   -0.1,    0.1,    0.2,    0.1,    0.0,   -0.0,   -0.1,    0.2,    0.2,    0.2,   -0.2,   -0.1,   -0.1,    0.1,   -0.1,    0.3,    0.6,  999.0,   -0.0,    0.0,   -0.2,   -0.0,   -0.2,  999.0,  999.0,  999.0,  999.0,  999.0
2012/03/20 05:20,  999.0,  999.0,   -0.1,    0.1,   -0.1,   -0.1,  999.0,   -0.2,    0.0,    0.2,   -0.3,   -0.1,   -0.1,   -0.0,   -0.3,   -0.2,   -0.3,   -0.2,   -0.1,   -0.3,   -0.3,   -0.5,   -0.4,    0.0,   -0.1,   -0.0,   -0.3,   -0.3,   -0.2,   -0.3,    0.0,   -0.1,   -0.1,   -0.1,    0.1,   -0.0,    0.0,   -0.0,    0.0,   -0.1,   -0.1,   -0.0,   -0.1,    0.1,    0.0,   -0.0,    0.0,    0.1,   -0.1,    0.0,    0.1,    0.2,   -0.0,    0.0,   -0.0,    0.2,    0.2,    0.1,   -0.0,   -0.1,    0.2,    0.1,    0.1,   -0.0,   -0.0,    0.1,    0.0,   -0.1,   -0.1,  999.0,    0.0,  999.0,   -0.1,    0.2,    0.3,  999.0,  999.0,  999.0,  999.0,  999.0
2012/03/20 05:30,  999.0,  999.0,   -0.1,   -0.0,   -0.1,   -0.0,  999.0,  999.0,  999.0,    0.0,   -0.0,   -0.1,    0.0,   -0.1,   -0.2,   -0.2,   -0.3,   -0.3,   -0.1,   -0.0,   -0.1,   -0.7,   -0.3,   -0.1,   -0.2,   -0.2,   -0.5,   -0.4,   -0.2,   -0.1,    0.0,    0.0,   -0.0,    0.0,   -0.1,    0.1,    0.0,    0.1,   -0.0,   -0.0,   -0.2,   -0.2,   -0.0,    0.1,    0.0,   -0.0,    0.0,   -0.0,   -0.0,   -0.1,   -0.1,   -0.0,   -0.1,    0.0,    0.3,    0.1,   -0.3,    0.1,   -0.1,    0.0,    0.1,    0.0,   -0.1,   -0.2,   -0.1,   -0.1,   -0.0,    0.1,    0.1,   -0.1,    0.1,   -0.1,   -0.0,    0.1,    0.0,  999.0,  999.0,  999.0,  999.0,  999.0
2012/03/20 05:40,  999.0,  999.0,   -0.2,   -0.1,   -0.0,    0.0,    0.1,    0.1,  999.0,    0.1,   -0.1,   -0.1,   -0.0,   -0.0,   -0.1,   -0.2,   -0.0,    0.1,    0.0,   -0.0,   -0.1,   -0.3,   -0.1,   -0.0,   -0.1,   -0.0,   -0.1,   -0.3,   -0.2,   -0.0,    0.1,    0.1,   -0.1,   -0.0,    0.0,   -0.1,   -0.0,    0.0,    0.0,   -0.1,   -0.2,   -0.1,   -0.1,   -0.0,    0.1,    0.1,   -0.1,    0.1,   -0.0,   -0.1,   -0.0,    0.1,   -0.1,    0.1,    0.1,    0.1,    0.0,   -0.1,   -0.1,   -0.1,   -0.1,    0.0,   -0.2,   -0.2,   -0.0,    0.1,   -0.0,    0.0,   -0.5,   -0.1,   -0.0,  999.0,    0.1,   -0.1,    0.1,  999.0,  999.0,  999.0,  999.0,  999.0
2012/03/20 05:50,  999.0,  999.0,    0.0,   -0.2,    0.3,    0.1,   -0.1,    0.1,   -0.0,   -0.1,   -0.1,   -0.1,   -0.1,   -0.4,   -0.0,    0.1,   -0.0,    0.0,   -0.1,    0.0,   -0.0,   -0.1,   -0.0,   -0.0,   -0.1,    0.2,    0.1,   -0.0,   -0.1,   -0.1,   -0.3,   -0.1,   -0.4,   -0.1,    0.1,   -0.1,    0.1,    0.1,    0.1,   -0.0,   -0.1,   -0.0,   -0.2,   -0.1,   -0.0,   -0.0,    0.1,    0.0,   -0.0,    0.0,   -0.1,    0.0,   -0.0,    0.0,    0.1,    0.1,    0.1,   -0.0,    0.1,   -0.1,   -0.1,   -0.1,    0.1,   -0.1,   -0.2,   -0.1,    0.0,    0.2,    0.3,   -0.1,   -0.1,   -0.4,   -0.0,   -0.0,   -0.1,  999.0,  999.0,  999.0,  999.0,  999.0
2012/03/20 06:00,  999.0,  999.0,   -0.3,   -0.0,    0.2,  999.0,   -0.0,   -0.1,   -0.0,    0.0,    0.1,    0.0,    0.1,    0.0,    0.1,    0.1,    0.1,    0.0,   -0.0,    0.0,    0.0,   -0.1,   -0.1,   -0.1,   -0.0,   -0.1,   -0.2,   -0.4,   -0.3,   -0.0,   -0.2,   -0.1,    0.0,   -0.1,   -0.1,   -0.1,    0.0,    0.2,   -0.0,   -0.1,   -0.1,   -0.0,   -0.0,    0.0,    0.2,   -0.0,    0.1,   -0.0,    0.3,    0.0,    0.1,   -0.1,   -0.1,    0.1,    0.1,    0.1,    0.0,    0.1,    0.1,    0.0,    0.1,    0.0,    0.0,    0.0,   -0.1,    0.1,   -0.1,   -0.0,   -0.0,    0.1,    0.1,    0.2,    0.1,   -0.1,   -0.2,  999.0,  999.0,  999.0,  999.0,  999.0
2012/03/20 06:10,  999.0,  999.0,  999.0,   -0.1,    0.1,   -0.0,   -0.0,    0.1,    0.1,    0.1,    0.1,    0.1,    0.1,   -0.0,   -0.0,    0.0,    0.2,    0.0,    0.1,   -0.2,   -0.1,   -0.2,   -0.2,   -0.1,   -0.1,   -0.2,   -0.4,   -0.2,   -0.1,   -0.1,   -0.0,   -0.0,    0.1,    0.2,    0.2,    0.1,    0.0,    0.0,    0.1,    0.1,    0.1,   -0.1,    0.0,    0.0,    0.1,    0.0,   -0.0,    0.1,    0.1,   -0.0,   -0.0,    0.0,    0.0,    0.1,   -0.2,   -0.0,    0.1,   -0.0,   -0.1,   -0.0,   -0.1,   -0.0,   -0.1,   -0.1,   -0.0,   -0.1,   -0.1,    0.2,    0.1,    0.1,    0.1,   -0.1,   -0.2,    0.1,    0.1,  999.0,  999.0,  999.0,  999.0,  999.0
2012/03/20 06:20,  999.0,  999.0,  999.0,   -0.1,   -0.1,   -0.2,   -0.0,  999.0,    0.1,    0.0,    0.3,    0.0,   -0.1,    0.0,   -0.1,   -0.1,    0.0,   -0.1,   -0.0,   -0.1,   -0.2,   -0.2,   -0.0,   -0.1,   -0.2,   -0.1,   -0.4,   -0.0,    0.0,    0.1,    0.0,    0.1,    0.0,   -0.1,   -0.0,   -0.2,    0.0,    0.1,   -0.0,   -0.0,   -0.1,   -0.0,   -0.0,    0.0,    0.0,    0.0,    0.1,    0.1,   -0.0,   -0.1,    0.0,   -0.1,   -0.0,    0.1,    0.1,   -0.0,    0.1,   -0.0,   -0.0,   -0.0,    0.1,    0.1,   -0.0,    0.1,   -0.1,   -0.1,    0.1,    0.0,   -0.0,   -0.3,    0.1,    0.4,   -0.0,    0.1,    0.1,  999.0,  999.0,  999.0,  999.0,  999.0
2012/03/20 06:30,  999.0,  999.0,  999.0,   -0.1,    0.2,    0.0,    0.1,   -0.0,   -0.1,    0.1,    0.1,    0.0,   -0.1,   -0.1,    0.1,    0.1,    0.0,   -0.1,   -0.2,   -0.0,   -0.0,   -0.1,   -0.2,    0.1,    0.0,   -0.1,   -0.1,    0.0,   -0.0,    0.0,    0.1,    0.0,    0.1,   -0.1,    0.0,    0.1,   -0.1,   -0.1,   -0.0,   -0.0,    0.1,   -0.1,    0.0,    0.0,   -0.0,    0.0,   -0.1,   -0.1,    0.0,    0.1,    0.0,   -0.1,   -0.1,    0.1,   -0.0,    0.1,    0.2,   -0.1,   -0.1,    0.1,   -0.1,   -0.0,    0.2,    0.0,    0.2,    0.0,   -0.0,    0.0,   -0.0,   -0.0,    0.0,    0.0,    0.2,   -0.2,   -0.1,  999.0,  999.0,  999.0,  999.0,  999.0
2012/03/20 06:40,  999.0,  999.0,  999.0,   -0.1,   -0.1,   -0.0,   -0.2,    0.1,    0.1,    0.1,   -0.0,   -0.0,   -0.1,   -0.1,   -0.1,    0.0,    0.0,   -0.1,   -0.1,   -0.0,   -0.0,    0.0,    0.1,    0.0,   -0.0,    0.0,    0.1,   -0.0,   -0.0,   -0.1,   -0.0,    0.1,    0.1,   -0.0,    0.1,   -0.0,   -0.0,    0.1,    0.0,    0.1,    0.1,   -0.1,   -0.0,   -0.0,   -0.1,   -0.0,    0.1,    0.0,   -0.1,    0.0,   -0.0,    0.1,    0.1,   -0.0,   -0.1,    0.1,    0.0,   -0.2,   -0.1,   -0.0,   -0.1,   -0.1,    0.1,   -0.0,   -0.2,   -0.1,   -0.0,   -0.1,   -0.0,   -0.0,   -0.0,    0.1,   -0.1,    0.0,    0.1,  999.0,  999.0,  999.0,  999.0,  999.0
2012/03/20 06:50,  999.0,  999.0,  999.0,   -0.2,    0.0,   -0.0,   -0.5,   -0.1,   -0.1,   -0.3,   -0.1,   -0.2,   -0.1,   -0.1,   -0.0,   -0.1,   -0.2,   -0.2,   -0.1,   -0.1,   -0.1,   -0.2,   -0.2,   -0.2,   -0.2,    0.0,   -0.1,    0.0,   -0.0,    0.1,   -0.0,    0.0,    0.0,   -0.0,   -0.1,    0.0,    0.1,    0.0,   -0.1,   -0.2,   -0.1,   -0.2,   -0.1,   -0.0,   -0.0,    0.1,   -0.0,   -0.0,   -0.0,    0.1,    0.2,    0.1,   -0.0,    0.0,   -0.0,    0.1,   -0.0,   -0.0,   -0.0,    0.0,    0.2,    0.1,    0.0,   -0.2,    0.0,    0.3,    0.0,    0.1,    0.0,    0.2,    0.3,    0.2,    0.0,    0.1,   -0.2,  999.0,  999.0,  999.0,  999.0,  999.0
2012/03/20 07:00,  999.0,  999.0,    0.1,    0.1,  999.0,    0.1,   -0.1,   -0.3,   -0.3,    0.1,   -0.4,   -0.3,   -0.4,   -0.0,    0.0,   -0.1,   -0.2,   -0.2,   -0.1,   -0.1,    0.0,   -0.0,   -0.0,   -0.1,   -0.1,   -0.1,   -0.1,   -0.1,   -0.2,   -0.1,   -0.0,   -0.1,   -0.1,    0.1,   -0.0,    0.0,   -0.0,    0.1,    0.1,    0.1,   -0.1,    0.0,    0.0,   -0.0,    0.1,   -0.0,    0.0,   -0.0,   -0.0,    0.1,    0.1,   -0.0,    0.0,    0.2,    0.3,   -0.1,   -0.0,    0.1,    0.0,   -0.2,   -0.3,   -0.1,   -0.0,   -0.0,   -0.1,    0.1,   -0.0,   -0.1,    0.2,    0.1,   -0.0,  999.0,    0.1,   -0.1,   -0.4,  999.0,  999.0,  999.0,  999.0,  999.0
2012/03/20 07:10,  999.0,  999.0,  999.0,    0.0,   -0.0,  999.0,  999.0,  999.0,   -0.1,   -0.0,    0.3,   -0.0,   -0.1,   -0.1,   -0.1,    0.0,    0.0,   -0.0,   -0.1,   -0.1,   -0.1,    0.1,   -0.0,   -0.1,   -0.0,   -0.1,    0.1,   -0.1,   -0.2,   -0.3,   -0.1,    0.0,    0.0,    0.1,   -0.2,   -0.1,    0.1,   -0.1,    0.1,   -0.1,   -0.0,   -0.1,   -0.0,   -0.1,    0.0,   -0.0,   -0.1,    0.0,   -0.0,   -0.1,    0.0,    0.1,   -0.1,   -0.0,    0.0,   -0.1,   -0.0,    0.0,   -0.1,   -0.3,   -0.0,   -0.1,   -0.1,   -0.0,   -0.2,   -0.2,   -0.2,   -0.1,   -0.1,  999.0,   -0.2,  999.0,    0.3,   -0.0,   -0.3,  999.0,  999.0,  999.0,  999.0,  999.0
2012/03/20 07:20,  999.0,  999.0,  999.0,    0.1,    0.0,    0.0,    0.2,    0.0,    0.2,   -0.1,   -0.1,   -0.0,   -0.1,   -0.1,   -0.1,   -0.0,   -0.1,    0.0,    0.0,    0.0,   -0.1,   -0.3,   -0.2,   -0.0,    0.1,   -0.1,    0.0,   -0.2,   -0.0,   -0.0,   -0.3,   -0.1,   -0.1,   -0.0,   -0.2,   -0.1,   -0.1,   -0.0,   -0.1,    0.1,    0.0,   -0.1,   -0.3,   -0.1,   -0.0,    0.0,    0.0,    0.0,   -0.1,   -0.1,   -0.3,   -0.1,    0.1,    0.0,    0.0,    0.0,   -0.1,    0.1,    0.0,    0.1,    0.1,   -0.0,    0.1,    0.0,    0.2,    0.1,    0.0,    0.1,    0.2,   -0.0,    0.1,    0.3,    0.0,    0.1,   -0.1,  999.0,  999.0,  999.0,  999.0,  999.0
2012/03/20 07:30,  999.0,  999.0,  999.0,   -0.0,    0.1,    0.3,    0.2,   -0.0,   -0.0,   -0.1,   -0.1,   -0.0,    0.0,    0.0,   -0.1,   -0.2,   -0.1,   -0.3,   -0.2,   -0.0,    0.0,    0.0,   -0.1,   -0.1,    0.0,   -0.1,   -0.4,   -0.5,   -0.1,   -0.0,   -0.1,   -0.1,   -0.1,   -0.2,   -0.1,   -0.0,    0.4,    0.2,    0.1,   -0.0,    0.1,    0.1,    0.1,   -0.1,    0.1,   -0.1,    0.1,   -0.0,    0.0,   -0.1,    0.0,    0.1,   -0.1,   -0.0,   -0.0,    0.1,   -0.0,    0.1,   -0.1,   -0.2,   -0.0,   -0.0,   -0.1,    0.1,    0.1,   -0.1,   -0.2,   -0.0,   -0.0,   -0.1,    0.0,  999.0,  999.0,    0.1,    0.1,  999.0,  999.0,  999.0,  999.0,  999.0
2012/03/20 07:40,  999.0,  999.0,  999.0,    0.5,   -0.1,    0.3,   -0.0,   -0.0,  999.0,   -0.4,  999.0,   12.8,   14.3,   13.3,   12.1,    4.4,  999.0,  999.0,  999.0,  999.0,    0.0,   -0.2,    0.0,   -0.0,   -0.3,   -0.2,   -0.4,   -0.1,   -0.1,    0.2,    0.1,   -0.0,   -0.0,   -0.2,   -0.2,    0.4,    0.1,    0.4,    0.0,    0.2,    0.0,   -0.2,    0.2,   -0.0,    0.1,    0.0,   -0.1,   -0.0,    0.0,   -0.1,    0.2,    0.2,   -0.1,    0.0,    0.2,    0.1,   -0.2,   -0.1,   -0.1,    0.1,    0.1,   -0.1,   -0.2,    0.1,    0.2,    0.1,   -0.0,    0.0,    0.1,    0.3,  999.0,  999.0,   -0.1,   -0.0,    0.0,  999.0,  999.0,  999.0,  999.0,  999.0
2012/03/20 07:50,  999.0,  999.0,  999.0,    0.1,    0.0,    3.2,    0.0,  999.0,    0.1,   -0.2,  999.0,   11.4,   10.8,   13.2,   11.9,   12.5,   12.3,    7.2,    8.1,   -0.0,   -0.2,   -0.1,   -0.1,   -0.0,   -0.0,    0.1,   -0.2,    0.1,   -0.0,   -0.1,    0.2,   -0.0,    0.1,   -0.1,   -0.0,    0.0,   -0.1,   -0.0,   -0.2,    0.1,   -0.2,    0.0,   -0.2,   -0.0,    0.1,   -0.1,   -0.3,   -0.1,    0.1,    0.1,   -0.1,   -0.0,    0.0,    0.1,  999.0,    0.0,   -0.1,   -0.2,   -0.0,   -0.0,   -0.1,   -0.1,    0.2,   -0.0,    0.2,   -0.1,    0.0,   -0.1,   -0.1,  999.0,   -0.1,  999.0,    0.1,   -0.0,    0.1,  999.0,  999.0,  999.0,  999.0,  999.0
2012/03/20 08:00,  999.0,  999.0,  999.0,    2.8,    0.1,    0.1,   -0.0,  999.0,    0.0,    5.4,    8.2,    8.0,    7.6,    8.1,    9.2,    6.9,    8.7,    5.3,    5.6,    5.8,   -0.1,   -0.0,   -0.1,    0.1,   -0.1,    0.0,   -0.1,    0.0,    0.0,    0.1,   -0.1,   -0.1,   -0.1,   -0.1,   -0.2,    0.1,    0.3,   -0.0,    0.1,   -0.0,   -0.1,   -0.2,    0.3,    0.1,   -0.0,    0.1,    0.1,   -0.1,    0.1,    0.0,    0.3,   -0.1,   -0.2,    0.1,   -0.1,   -0.1,   -0.4,   -0.1,    0.1,    0.1,    0.3,    0.5,   -0.1,    0.3,   -0.1,   -0.1,   -0.0,    0.1,  999.0,  999.0,  999.0,  999.0,  999.0,  999.0,  999.0,  999.0,  999.0,  999.0,  999.0,  999.0
2012/03/20 08:10,  999.0,  999.0,  999.0,  999.0,  999.0,  999.0,  999.0,  999.0,  999.0,    8.7,    5.2,    5.7,  999.0,    5.5,  999.0,  999.0,  999.0,  999.0,   -0.0,    0.1,  999.0,  999.0,   -0.2,   -0.1,   -0.3,    0.0,  999.0,   -0.1,   -0.2,   -0.5,   -0.3,   -0.2,   -0.0,   -0.2,   -0.2,   -0.2,  999.0,   -0.2,    0.1,   -0.2,  999.0,   -0.1,  999.0,  999.0,  999.0,    0.1,    0.1,    0.0,    0.3,   -0.1,    0.3,   -0.0,   -0.2,    0.1,    0.1,   -0.1,   -0.1,   -0.3,   -0.0,    0.5,   -0.1,  999.0,   -0.1,   -0.1,  999.0,    0.3,  999.0,    0.3,  999.0,  999.0,   -0.3,  999.0,  999.0,   -0.2,    0.3,  999.0,  999.0,  999.0,  999.0,  999.0
2012/03/20 08:20,  999.0,  999.0,  999.0,    0.1,   -0.1,  999.0,  999.0,  999.0,  999.0,    0.0,    0.0,  999.0,  999.0,    0.1,   -0.0,   -0.1,    0.1,    0.0,    0.0,    0.0,    0.0,   -0.0,    0.0,    0.0,    0.1,    0.1,    0.0,   -0.1,   -0.3,   -0.5,   -0.2,   -0.0,    0.0,    0.1,    0.2,   -0.1,    0.0,    0.1,    0.2,   -0.0,   -0.3,   -0.2,    0.0,   -0.1,    0.1,    0.1,   -0.1,   -0.1,   -0.0,    0.1,   -0.0,    0.2,    0.1,    0.1,    0.0,   -0.0,    0.1,    0.0,    0.1,    0.1,    0.0,   -0.2,   -0.1,    0.0,    0.1,   -0.2,   -0.0,   -0.0,    0.1,    0.0,    0.1,  999.0,    0.1,  999.0,    0.1,  999.0,  999.0,  999.0,  999.0,  999.0
2012/03/20 08:30,  999.0,  999.0,  999.0,    0.1,   -0.2,   -0.1,    0.0,  999.0,    2.3,  999.0,    3.5,    7.0,    7.6,    7.1,    4.5,  999.0,    0.1,  999.0,   -0.1,   -0.1,   -0.1,   -0.2,   -0.3,   -0.1,   -0.0,    0.0,   -0.4,   -0.6,   -0.6,   -1.1,    0.0,   -0.3,   -0.0,   -0.1,   -0.4,    0.2,    0.2,   -0.4,    0.0,    0.1,    0.1,    0.0,    0.1,    0.0,   -0.0,    0.1,   -0.1,   -0.1,   -0.0,   -0.2,   -0.1,   -0.0,    0.0,    0.3,   -0.0,    0.0,    0.1,    0.2,    0.1,    0.2,   -0.3,   -0.1,   -0.1,   -0.0,    0.0,    0.2,   -0.2,   -0.2,   -0.0,  999.0,    0.1,  999.0,    0.4,  999.0,    0.1,  999.0,  999.0,  999.0,  999.0,  999.0
2012/03/20 08:40,  999.0,  999.0,  999.0,  999.0,  999.0,  999.0,  999.0,  999.0,  999.0,  999.0,    7.4,    7.3,   12.1,   12.8,   14.0,  999.0,  999.0,  999.0,  999.0,   -0.0,   -0.1,   -0.1,    0.1,    0.1,    0.1,    0.0,    0.1,    0.0,   -0.1,   -0.1,   -0.5,   -0.1,    0.0,    0.0,   -0.1,    0.2,  999.0,  999.0,   -0.0,   -0.0,   -0.2,   -0.1,   -0.1,   -0.1,    0.1,   -0.0,   -0.0,    0.2,   -0.0,    0.0,   -0.1,    0.0,   -0.1,    0.1,    0.0,    0.2,    0.1,   -0.3,   -0.0,   -0.1,   -0.3,   -0.2,    0.1,   -0.1,    0.0,    0.1,   -0.2,   -0.1,  999.0,  999.0,  999.0,    0.2,   -0.1,   -0.2,  999.0,  999.0,  999.0,  999.0,  999.0,  999.0
2012/03/20 08:50,  999.0,  999.0,  999.0,   -0.3,  999.0,  999.0,  999.0,  999.0,  999.0,  999.0,  999.0,   18.7,   19.0,  999.0,  999.0,  999.0,  999.0,   12.4,    3.3,    0.1,   -0.3,   -0.2,   -0.5,    0.0,    0.1,    0.0,    0.2,   -0.1,   -0.0,    0.1,   -0.1,   -0.4,    0.0,   -0.0,   -0.0,    0.1,    0.0,    0.3,    0.0,   -0.1,   -0.2,   -0.2,   -0.1,    0.1,    0.1,   -0.1,   -0.1,   -0.2,   -0.1,   -0.0,   -0.0,    0.1,    0.1,   -0.0,   -0.1,    0.3,   -0.1,    0.1,   -0.1,    0.0,    0.1,    0.2,   -0.1,   -0.1,   -0.0,   -0.1,    0.1,   -0.0,   -0.3,  999.0,    0.0,  999.0,   -0.2,   -0.1,  999.0,  999.0,  999.0,  999.0,  999.0,  999.0
2012/03/20 09:00,  999.0,  999.0,  999.0,    0.0,    0.0,    0.1,   -0.1,  999.0,   -0.1,  999.0,  999.0,  999.0,  999.0,    5.3,    5.0,    7.8,    7.9,    6.0,    5.6,    4.6,   -0.0,   -0.8,   -0.2,   -0.1,   -0.0,    0.1,    0.1,    0.1,    0.3,   -0.1,   -0.1,   -0.1,    0.0,   -0.1,    0.1,    0.1,    0.0,    0.3,    0.1,   -0.1,   -0.1,   -0.1,    0.0,    0.0,    0.1,    0.1,    0.1,    0.1,    0.0,    0.0,    0.0,    0.2,    0.1,   -0.0,   -0.0,    0.1,   -0.0,    0.1,   -0.1,   -0.1,    0.3,    0.1,   -0.1,   -0.2,   -0.1,    0.1,    0.1,    0.2,    0.0,    0.0,  999.0,  999.0,    0.0,    0.1,   -0.1,  999.0,  999.0,  999.0,  999.0,  999.0
2012/03/20 09:10,  999.0,  999.0,   -0.1,    0.0,    0.0,   -0.1,   -0.1,   -0.0,    0.0,   -0.0,    0.0,    0.2,   -0.1,    0.3,    0.4,    0.2,    0.1,   -0.2,   -0.1,    0.1,    0.1,   -0.2,   -0.2,    0.0,   -0.1,   -0.1,    0.1,   -0.0,   -0.0,   -0.1,   -0.0,   -0.1,   -0.0,    0.1,    0.1,    0.1,   -0.0,   -0.1,    0.0,   -0.0,   -0.1,   -0.0,    0.0,   -0.2,   -0.2,    0.1,    0.1,    0.1,    0.2,    0.0,   -0.0,   -0.1,   -0.0,   -0.1,   -0.1,   -0.2,   -0.1,    0.0,    0.2,   -0.1,    0.0,    0.1,    0.2,    0.2,    0.0,    0.1,    0.3,    0.3,    0.3,   -0.4,    0.2,  999.0,    0.1,  999.0,   -0.2,  999.0,  999.0,  999.0,  999.0,  999.0
2012/03/20 09:20,  999.0,  999.0,   -0.1,   -0.1,    0.0,   -0.0,   -0.1,    0.1,    0.0,    0.1,    0.2,    0.1,    0.0,    0.1,    0.1,    0.0,   -0.0,   -0.2,   -0.5,   -0.3,    0.2,   -0.4,   -0.8,   -0.3,   -0.0,   -0.1,   -0.2,   -0.0,   -0.0,    0.1,   -0.0,   -0.0,    0.1,    0.1,    0.0,   -0.1,   -0.0,    0.0,    0.1,    0.0,    0.0,   -0.2,   -0.2,    0.1,    0.1,   -0.1,   -0.1,   -0.2,    0.0,   -0.1,   -0.1,   -0.2,   -0.0,    0.0,    0.0,   -0.0,   -0.1,   -0.0,    0.0,   -0.1,   -0.1,   -0.1,   -0.0,   -0.0,    0.1,   -0.1,    0.0,   -0.1,   -0.0,   -0.0,   -0.1,  999.0,   -0.4,    0.1,   -0.1,  999.0,  999.0,  999.0,  999.0,  999.0
2012/03/20 09:30,  999.0,  999.0,    0.0,    0.0,   -0.1,   -0.1,    0.1,   -0.1,   -0.1,   -0.1,    0.3,    0.2,    0.2,   -0.1,    0.0,   -0.0,    0.4,   -0.3,   -0.4,   -0.3,   -0.1,   -0.4,   -0.1,    0.3,    0.0,    0.2,    0.0,   -0.1,   -0.1,   -0.1,    0.0,    0.1,    0.2,   -0.2,    0.0,   -0.0,    0.1,   -0.1,   -0.1,   -0.1,   -0.2,   -0.3,    0.0,    0.1,    0.2,    0.2,   -0.1,   -0.1,   -0.0,   -0.1,    0.1,   -0.1,    0.1,   -0.1,   -0.2,   -0.2,   -0.1,   -0.0,    0.0,    0.2,    0.2,   -0.1,    0.0,    0.0,   -0.0,    0.0,    0.2,   -0.0,   -0.1,    0.1,    0.1,    0.1,  999.0,  999.0,    0.4,  999.0,  999.0,  999.0,  999.0,  999.0
2012/03/20 09:40,  999.0,  999.0,    0.1,    0.1,  999.0,   -0.1,   -0.1,   -0.1,   -0.0,    0.1,   -0.0,    0.1,    0.0,    0.2,    0.2,   -0.2,   -0.0,    2.7,    2.6,    4.1,    4.3,    0.6,    0.1,   -0.1,    0.2,   -0.0,   -0.1,    0.1,   -0.0,   -0.1,    0.1,    0.0,    0.0,   -0.0,   -0.1,    0.1,   -0.1,    0.1,    0.0,   -0.0,    0.0,    0.1,    0.0,   -0.0,    0.1,   -0.1,   -0.1,   -0.1,    0.1,    0.1,   -0.0,    0.0,    0.1,   -0.1,    0.0,   -0.0,    0.1,    0.2,    0.0,   -0.1,    0.0,   -0.1,   -0.1,   -0.1,    0.4,   -0.0,   -0.0,   -0.3,    0.1,   -0.1,    0.3,  999.0,    0.2,  999.0,  999.0,  999.0,  999.0,  999.0,  999.0,  999.0
2012/03/20 09:50,  999.0,  999.0,  999.0,    0.0,   -0.0,   -0.1,   -0.1,   -0.1,   -0.1,   -0.1,    2.2,    3.6,    4.3,    5.8,    5.1,    4.0,   -0.1,   -0.0,    0.0,   -0.1,   -0.1,   -0.2,    0.1,    0.0,  999.0,    0.0,   -0.2,   -0.1,   -0.0,   -0.0,   -0.1,   -0.1,   -0.1,    0.1,    0.0,    0.1,    0.1,    0.1,   -0.0,   -0.1,   -0.3,   -0.1,    0.1,   -0.1,    0.0,   -0.0,    0.1,   -0.1,    0.2,    0.2,   -0.1,    0.0,    0.0,   -0.1,   -0.1,   -0.0,    0.0,   -0.2,    0.1,    0.3,    0.2,   -0.2,   -0.1,   -0.2,  999.0,   -0.1,   -0.2,    0.2,    0.1,    0.1,    0.0,  999.0,   -0.1,  999.0,   -0.0,  999.0,  999.0,  999.0,  999.0,  999.0
2012/03/20 10:00,  999.0,  999.0,    0.0,   -0.0,   -0.0,    0.0,    0.1,   -0.0,    0.2,  999.0,    7.7,    6.3,    6.2,    9.2,    6.3,  999.0,  999.0,  999.0,  999.0,  999.0,   -0.0,    0.1,   -0.0,   -0.2,   -0.1,   -0.1,   -0.1,   -0.1,   -0.2,   -0.1,   -0.0,    0.2,   -0.0,    0.0,   -0.0,   -0.0,   -0.2,   -0.3,   -0.0,   -0.1,   -0.1,    0.1,    0.1,   -0.0,    0.0,    0.0,    0.2,   -0.1,    0.0,   -0.0,   -0.1,   -0.2,    0.1,    0.0,   -0.1,    0.0,   -0.1,    0.0,   -0.0,    0.2,   -0.1,   -0.1,    0.1,    0.0,    0.0,    0.2,    0.1,   -0.1,   -0.0,  999.0,    0.1,  999.0,   -0.7,  999.0,    0.1,  999.0,  999.0,  999.0,  999.0,  999.0
2012/03/20 10:10,  999.0,  999.0,  999.0,   -0.0,   -0.0,    0.0,   -0.0,   -0.0,    0.0,   -0.1,    0.2,   -0.1,   -0.0,    0.1,    1.6,    2.1,   -0.1,    0.0,   -0.0,    0.0,   -0.2,   -0.1,   -0.1,   -0.1,   -0.1,    0.1,    0.0,   -0.1,    0.0,    0.1,   -0.0,    0.0,    0.1,    0.1,   -0.2,   -0.2,   -0.1,    0.0,    0.0,   -0.1,   -0.1,    0.0,   -0.1,   -0.1,    0.1,    0.1,    0.1,   -0.0,   -0.0,    0.0,   -0.3,   -0.2,    0.1,    0.0,   -0.0,    0.1,    0.1,    0.1,   -0.0,   -0.1,   -0.1,   -0.1,   -0.1,   -0.1,   -0.2,   -0.3,    0.1,    0.0,   -0.2,    0.6,    0.2,   -0.2,    0.0,   -0.2,   -0.1,  999.0,  999.0,  999.0,  999.0,  999.0
2012/03/20 10:20,  999.0,  999.0,  999.0,    0.0,   -0.1,    0.0,  999.0,   -0.1,   -0.2,    3.9,    1.0,    5.8,    7.6,    6.1,    6.9,    5.1,   10.3,    7.8,   -0.3,   -0.1,   -0.4,   -0.7,   -0.8,    0.0,   -0.2,   -0.1,   -0.1,    0.1,   -0.2,    0.0,   -0.0,   -0.2,   -0.3,    0.0,   -0.0,   -0.2,  999.0,    0.0,    0.0,    0.0,   -0.2,   -0.2,    0.0,    0.3,   -0.0,    0.1,   -0.0,   -0.0,    0.1,    0.0,   -0.2,   -0.0,    0.1,   -0.1,    0.2,   -0.1,    0.0,    0.2,    0.1,   -0.0,   -0.2,   -0.0,   -0.2,   -0.1,   -0.1,   -0.0,   -0.0,   -0.4,  999.0,  999.0,  999.0,  999.0,    0.3,    0.0,  999.0,    0.2,  999.0,  999.0,  999.0,  999.0
2012/03/20 10:30,  999.0,  999.0,  999.0,  999.0,  999.0,  999.0,  999.0,  999.0,  999.0,   14.2,   20.1,   19.3,   19.4,   20.3,   20.6,   20.7,   21.9,   25.0,  999.0,  999.0,  999.0,  999.0,  999.0,  999.0,  999.0,  999.0,  999.0,  999.0,    0.0,    0.1,   -0.2,   -0.3,   -0.1,    0.1,   -0.3,   -0.1,  999.0,   -0.2,  999.0,    0.1,   -0.2,  999.0,  999.0,   -0.2,    0.1,   -0.1,    0.1,    0.0,    0.1,    0.4,   -0.3,    0.0,    0.6,    0.2,    0.2,   -0.0,   -0.1,    0.4,   -0.0,  999.0,    0.1,   -0.2,    0.1,   -0.3,   -0.2,  999.0,  999.0,   -0.3,  999.0,  999.0,  999.0,  999.0,  999.0,  999.0,  999.0,  999.0,  999.0,  999.0,  999.0,  999.0
2012/03/20 10:40,  999.0,  999.0,  999.0,    0.3,   -0.0,    0.1,  999.0,  999.0,  999.0,   20.9,   14.0,   13.7,   15.4,   15.1,   15.3,   15.1,   17.7,   18.2,   18.5,   17.8,  999.0,  999.0,  999.0,  999.0,  999.0,    0.3,   -0.0,  999.0,    0.0,   -0.1,    0.2,   -0.4,    0.0,   -0.0,    0.1,    0.0,    0.2,    0.1,    0.2,   -0.2,   -0.2,   -0.2,   -0.0,    0.0,    0.0,    0.0,    0.1,  999.0,   -0.0,    0.2,   -0.0,    0.0,    0.0,    0.1,   -0.1,   -0.0,   -0.2,    0.1,    0.2,    0.2,   -0.0,   -0.3,   -0.1,  999.0,    0.3,    0.2,  999.0,  999.0,   -0.3,  999.0,   -0.2,  999.0,  999.0,   -0.1,  999.0,  999.0,  999.0,  999.0,  999.0,  999.0
2012/03/20 10:50,  999.0,  999.0,  999.0,  999.0,  999.0,  999.0,    2.6,  999.0,  999.0,  999.0,   20.3,   23.9,  999.0,   19.6,   19.5,   15.2,   17.6,   15.0,   15.2,   13.5,  999.0,  999.0,    6.6,  999.0,  999.0,  999.0,    4.3,  999.0,  999.0,  999.0,  999.0,  999.0,  999.0,    0.2,  999.0,  999.0,    0.1,   -0.1,    0.2,    0.1,   -0.0,   -0.1,  999.0,    0.0,    0.1,    0.2,  999.0,  999.0,    0.3,  999.0,   -0.1,   -0.2,    0.0,    0.1,   -0.1,   -0.0,   -0.0,   -0.2,    0.1,  999.0,   -0.2,    0.1,   -0.1,   -0.0,  999.0,  999.0,  999.0,  999.0,  999.0,  999.0,  999.0,  999.0,  999.0,  999.0,  999.0,  999.0,  999.0,  999.0,  999.0,  999.0
2012/03/20 11:00,  999.0,  999.0,  999.0,  999.0,   -0.0,   -0.1,  999.0,  999.0,    6.8,   14.0,   14.8,   16.7,   14.6,   15.2,   12.4,   10.6,    4.8,    4.5,    4.9,  999.0,  999.0,  999.0,  999.0,  999.0,  999.0,  999.0,  999.0,  999.0,  999.0,  999.0,  999.0,  999.0,  999.0,    0.1,  999.0,  999.0,    0.0,   -0.0,   -0.0,   -0.1,   -0.0,    0.1,    0.0,   -0.1,    0.0,    0.2,   -0.0,   -0.2,   -0.3,    0.0,    0.0,   -0.1,   -0.1,    0.0,   -0.1,    0.0,   -0.2,   -0.2,    0.1,    0.1,    0.1,    0.1,    0.1,    0.1,  999.0,  999.0,  999.0,  999.0,  999.0,  999.0,  999.0,  999.0,  999.0,  999.0,  999.0,  999.0,  999.0,  999.0,  999.0,  999.0
2012/03/20 11:10,  999.0,  999.0,  999.0,  999.0,  999.0,  999.0,  999.0,  999.0,  999.0,  999.0,  999.0,  999.0,  999.0,  999.0,   15.1,    8.7,    6.3,    8.9,    7.3,    6.8,    3.4,  999.0,  999.0,  999.0,  999.0,  999.0,  999.0,  999.0,  999.0,  999.0,  999.0,  999.0,  999.0,  999.0,  999.0,  999.0,  999.0,  999.0,  999.0,  999.0,  999.0,  999.0,  999.0,  999.0,  999.0,  999.0,  999.0,  999.0,  999.0,  999.0,  999.0,  999.0,  999.0,  999.0,  999.0,  999.0,  999.0,  999.0,  999.0,  999.0,  999.0,  999.0,  999.0,  999.0,  999.0,  999.0,  999.0,  999.0,  999.0,  999.0,  999.0,  999.0,  999.0,  999.0,  999.0,  999.0,  999.0,  999.0,  999.0,  999.0
2012/03/20 11:20,  999.0,  999.0,  999.0,    0.0,    0.0,   -0.0,    0.1,   -0.0,   -0.0,    1.5,  999.0,    2.1,    1.5,    1.8,    1.2,    2.6,    1.4,   -0.0,    0.0,    0.0,   -0.1,   -0.1,    0.0,   -0.1,   -0.0,   -0.1,   -0.1,   -0.0,    0.0,    0.0,    0.0,   -0.2,   -0.1,    0.1,    0.2,    0.2,   -0.0,   -0.2,    0.0,   -0.0,   -0.1,   -0.1,    0.1,    0.1,    0.0,   -0.1,   -0.1,   -0.0,   -0.0,    0.0,    0.1,    0.0,    0.0,    0.1,    0.1,    0.0,    0.1,    0.1,   -0.1,   -0.1,    0.0,   -0.1,    0.0,    0.2,    0.4,    0.1,    0.1,   -0.1,   -0.0,    0.1,    0.1,  999.0,   -0.0,   -0.0,    0.0,  999.0,  999.0,  999.0,  999.0,  999.0
2012/03/20 11:30,  999.0,  999.0,  999.0,    0.1,   -0.1,  999.0,  999.0,  999.0,  999.0,  999.0,    5.5,    7.0,    6.6,    1.9,    2.0,    2.1,    0.0,    0.0,   -0.1,   -0.0,   -0.0,   -0.1,   -0.1,    0.0,    0.1,   -0.0,   -0.0,   -0.0,   -0.0,   -0.2,   -0.0,   -0.0,    0.0,    0.0,   -0.1,    0.1,   -0.0,    0.3,   -0.0,    0.1,   -0.1,   -0.2,    0.0,   -0.0,    0.1,   -0.0,   -0.1,    0.2,    0.1,    0.0,    0.1,    0.1,   -0.2,    0.0,   -0.2,   -0.1,   -0.1,   -0.0,    0.1,   -0.0,   -0.0,   -0.1,    0.1,    0.1,    0.0,    0.0,    0.1,   -0.2,   -0.2,  999.0,  999.0,  999.0,    0.1,  999.0,  999.0,  999.0,  999.0,  999.0,  999.0,  999.0
2012/03/20 11:40,  999.0,  999.0,  999.0,  999.0,    0.0,   -0.1,  999.0,    0.2,  999.0,    2.5,    3.2,   15.5,   15.1,   14.9,   16.7,   16.0,   17.0,    2.3,    3.5,    3.4,    3.9,    7.2,    0.2,    0.0,    0.1,    0.0,  999.0,  999.0,  999.0,    0.0,   -0.1,    0.1,    0.1,   -0.1,  999.0,  999.0,  999.0,  999.0,    0.2,    0.1,   -0.1,  999.0,  999.0,   -0.1,    0.3,    0.1,  999.0,   -0.0,    0.0,    0.1,    0.1,   -0.1,   -0.4,  999.0,  999.0,   -0.1,   -0.1,   -0.1,    0.2,    0.2,   -0.1,  999.0,   -0.0,   -0.2,  999.0,  999.0,  999.0,    0.2,  999.0,  999.0,  999.0,  999.0,  999.0,  999.0,  999.0,  999.0,  999.0,  999.0,  999.0,  999.0
2012/03/20 11:50,  999.0,  999.0,  999.0,    0.2,   -0.1,    0.1,    0.1,    0.1,    0.2,    0.1,    0.3,    0.1,    0.0,    0.0,   -0.1,    1.6,    0.1,    0.1,    0.0,    0.0,    5.0,   -0.3,    3.5,    3.7,    3.7,   -0.2,   -0.4,   -0.3,   -0.3,    0.0,   -0.5,   -0.7,   -0.4,   -0.2,   -0.2,  999.0,    0.0,  999.0,   -0.0,   -0.4,   -0.2,   -0.3,   -0.2,    0.2,    0.1,    0.3,    0.1,    0.2,    0.2,   -0.1,   -0.1,   -0.0,    0.1,   -0.1,   -0.0,   -0.0,   -0.0,   -0.2,    0.0,    0.1,    0.2,    0.0,   -0.0,   -0.1,   -0.2,    0.1,    0.1,    0.0,  999.0,   -0.1,  999.0,  999.0,   -0.1,    0.0,    0.0,  999.0,  999.0,  999.0,  999.0,  999.0
2012/03/20 12:00,  999.0,  999.0,    0.5,    0.2,   -0.1,   -0.0,   -0.2,  999.0,  999.0,    5.0,  999.0,  999.0,  999.0,  999.0,  999.0,   13.3,  999.0,   12.5,   11.9,   12.3,   12.9,   13.6,   14.6,   13.1,  999.0,  999.0,  999.0,  999.0,    0.1,    0.0,   -1.1,   -0.4,  999.0,   -0.4,  999.0,    0.2,  999.0,  999.0,  999.0,  999.0,   -0.3,  999.0,  999.0,    0.1,    0.2,    0.2,    0.0,   -0.3,   -0.1,   -0.1,    0.1,   -0.1,    0.1,    0.3,    0.0,   -0.2,    0.1,   -0.2,    0.1,   -0.0,   -0.1,    0.0,    0.1,   -0.0,   -0.1,   -0.0,    0.4,   -0.0,   -0.2,  999.0,    0.1,    0.0,   -0.1,    0.3,   -0.0,  999.0,  999.0,  999.0,  999.0,  999.0
2012/03/20 12:10,  999.0,  999.0,    2.4,    0.3,  999.0,  999.0,  999.0,  999.0,  999.0,  999.0,  999.0,  999.0,  999.0,  999.0,    4.6,    7.0,    7.9,    6.4,   14.1,    8.0,    8.2,    9.1,  999.0,    0.1,  999.0,    0.1,   -0.4,   -0.3,   -0.0,   -0.2,    0.2,    0.2,   -0.5,   -0.7,   -0.4,   -0.1,  999.0,    0.1,  999.0,   -0.2,   -0.2,    0.2,  999.0,   -0.2,   -0.2,    0.1,    0.1,   -0.2,   -0.2,   -0.2,   -0.3,   -0.1,    0.3,    0.2,    0.3,    0.0,    0.2,    0.2,    0.1,   -0.2,   -0.1,   -0.4,    0.1,   -0.1,    0.1,    0.1,    0.1,    0.2,   -0.1,  999.0,  999.0,  999.0,  999.0,  999.0,  999.0,  999.0,  999.0,  999.0,  999.0,  999.0
2012/03/20 12:20,  999.0,    0.0,   -0.0,   -0.1,    0.0,    0.0,   -0.0,   -0.3,   -0.4,   -0.3,    0.0,   -0.9,   -1.4,  999.0,  999.0,    5.1,    5.3,    6.4,  999.0,    5.1,  999.0,  999.0,  999.0,  999.0,    0.2,   -0.8,   -0.8,   -0.2,   -0.4,   -0.0,    0.4,    0.0,   -0.2,   -0.0,   -0.3,  999.0,  999.0,   -0.0,   -0.1,  999.0,  999.0,  999.0,  999.0,   -0.0,    0.2,  999.0,  999.0,   -0.0,    0.1,    0.3,   -0.4,    0.0,    0.2,    0.2,    0.0,    0.1,   -0.1,   -0.1,    0.1,  999.0,    0.0,    0.3,    0.3,    0.1,    0.1,   -0.3,   -0.1,    0.2,    0.2,  999.0,  999.0,  999.0,  999.0,   -0.0,    0.1,  999.0,  999.0,  999.0,  999.0,  999.0
2012/03/20 12:30,  999.0,    0.0,    0.6,    0.4,    0.3,   -0.1,    0.3,    0.1,   -0.1,   -1.0,    0.3,   -1.6,    0.8,    3.8,  999.0,  999.0,  999.0,   -1.5,  999.0,  999.0,  999.0,  999.0,  999.0,  999.0,  999.0,  999.0,  999.0,  999.0,  999.0,  999.0,   -0.8,  999.0,   -0.3,   -0.1,  999.0,  999.0,  999.0,  999.0,   -0.3,  999.0,  999.0,  999.0,  999.0,   -0.3,  999.0,  999.0,   -0.1,   -0.2,   -0.2,  999.0,  999.0,   -0.2,    0.1,   -0.1,    0.1,    0.1,   -0.2,  999.0,   -0.0,    0.2,    0.3,    0.2,   -0.2,    0.1,    0.1,    0.1,   -0.0,   -0.1,    0.1,  999.0,  999.0,  999.0,  999.0,    0.1,   -0.0,  999.0,  999.0,  999.0,  999.0,  999.0
2012/03/20 12:40,  999.0,    0.4,    1.1,    0.9,    0.6,   -0.1,   -1.2,   -0.0,   -1.0,    0.6,    4.5,    3.3,    1.8,    4.1,    2.0,   -0.6,    1.4,    1.3,    0.4,    4.3,  999.0,  999.0,  999.0,  999.0,  999.0,  999.0,  999.0,  999.0,  999.0,  999.0,  999.0,    0.5,    0.2,   -0.8,  999.0,   -0.9,  999.0,  999.0,  999.0,  999.0,  999.0,  999.0,   -0.2,   -0.4,    0.2,    0.1,    0.1,    0.1,   -0.3,  999.0,   -0.1,   -0.1,    0.1,    0.1,   -0.1,   -0.3,   -0.2,   -0.3,    0.0,   -0.4,    0.1,   -0.0,   -0.0,    0.1,    0.0,   -0.2,    0.2,   -0.4,    0.1,    0.3,  999.0,   -0.2,  999.0,  999.0,   -0.1,  999.0,  999.0,  999.0,  999.0,    0.4
2012/03/20 12:50,  999.0,    0.1,   -0.6,   -0.0,    0.3,    0.3,   -0.4,    0.4,    0.7,    0.6,  999.0,   -1.5,   -0.4,   -0.5,   -0.1,   -0.1,   -0.6,   -0.6,    0.2,    0.3,   -0.4,   -0.4,   -1.0,   -0.5,   -0.2,    0.1,    0.2,    0.1,    0.0,    0.1,    0.1,   -0.0,    0.1,    0.6,  999.0,   -0.9,   -0.5,   -0.2,   -0.0,    0.1,   -0.0,    0.1,   -0.3,    0.1,   -0.2,  999.0,    0.2,   -0.1,   -0.1,  999.0,   -0.1,   -0.4,   -0.0,   -0.0,   -0.1,   -0.0,    0.2,    0.1,    0.0,   -0.2,    0.0,    0.1,   -0.1,   -0.1,    0.0,  999.0,   -0.1,    0.0,   -0.2,  999.0,    0.2,  999.0,   -0.0,    0.1,   -0.0,  999.0,  999.0,  999.0,  999.0,  999.0
2012/03/20 13:00,  999.0,    0.0,    0.1,   -0.1,   -0.3,   -0.1,   -0.1,   -0.3,   -0.1,    0.1,    0.1,    1.9,    0.3,   -0.2,   -0.1,    0.0,   -0.8,   -1.1,    0.3,    0.1,   -0.1,    0.2,    0.3,   -0.2,   -0.2,   -0.1,    0.1,   -0.0,    0.0,   -0.1,    0.2,   -0.2,    0.0,    0.2,    0.4,    0.4,  999.0,   -0.1,    0.1,    0.0,   -0.6,   -0.4,    0.0,    0.2,    0.2,    0.1,   -0.2,   -0.1,   -0.0,   -0.2,   -0.1,   -0.1,    0.1,    0.0,   -0.1,   -0.3,   -0.1,   -0.0,    0.3,   -0.0,   -0.1,    0.1,   -0.1,   -0.3,   -0.5,   -0.2,   -0.1,    0.2,    0.1,  999.0,  999.0,   -0.2,  999.0,    0.1,  999.0,  999.0,  999.0,  999.0,  999.0,  999.0
2012/03/20 13:10,  999.0,   -1.1,   -1.3,    0.2,   -0.2,   -0.4,    0.1,   -0.2,   -0.1,   -0.4,    0.8,   -0.7,  999.0,  999.0,  999.0,   -0.1,   -0.6,   -1.0,   -1.2,   -0.6,   -0.3,   -0.3,   -0.5,    0.6,    0.3,   -0.0,    0.0,    0.1,   -0.1,    0.1,   -0.2,    0.1,    0.1,    0.2,    0.2,    0.8,    0.4,    0.3,    0.1,   -0.1,   -0.3,   -0.3,   -0.4,   -0.2,   -0.3,   -0.3,    0.0,    0.1,    0.1,  999.0,   -0.3,   -0.0,   -0.2,    0.1,   -0.0,   -0.1,    0.1,   -0.1,    0.1,    0.2,   -0.3,   -0.3,   -0.2,    0.0,   -0.2,    0.1,  999.0,  999.0,  999.0,   -0.0,    0.3,  999.0,  999.0,    0.1,  999.0,  999.0,  999.0,  999.0,  999.0,  999.0
2012/03/20 13:20,  999.0,    0.2,    0.7,   -0.1,   -0.1,   -0.3,    0.0,    0.2,    0.2,    0.1,    0.0,    0.1,   -0.6,   -0.0,    1.8,    0.0,   -0.1,   -0.4,    0.1,    0.3,   -0.2,    0.3,    0.3,    0.4,    0.2,    0.0,   -0.1,    0.0,    0.0,   -0.2,    0.2,    0.2,   -0.1,    0.3,    0.9,    1.0,    0.2,    0.1,   -0.2,    0.7,    0.0,   -0.1,   -0.0,   -0.1,   -0.0,    0.1,    0.3,   -0.1,   -0.0,  999.0,    0.2,    0.2,    0.1,    0.1,    0.1,   -0.1,   -0.1,    0.2,    0.1,    0.2,    0.0,    0.1,   -0.2,   -0.1,   -0.0,   -0.0,   -0.1,   -0.3,    0.1,   -0.2,   -0.1,    0.2,  999.0,   -0.2,    0.0,  999.0,  999.0,  999.0,  999.0,  999.0
2012/03/20 13:30,  999.0,    0.3,    0.3,    0.0,    0.2,   -0.1,   -0.1,   -0.1,   -0.0,    0.1,   -0.2,   -0.5,    0.3,   -0.0,    0.2,   -0.4,   -0.3,    0.5,    0.6,    0.7,    0.4,    0.4,    0.6,    0.6,    0.3,    0.3,   -0.1,   -0.0,   -0.0,    0.1,   -0.1,   -0.2,    0.0,    0.3,    0.1,    0.7,    0.4,    0.2,   -0.1,   -0.1,   -0.5,   -0.1,   -0.1,   -0.1,    0.1,    0.0,    0.0,    0.2,    0.4,    0.3,    0.1,   -0.2,    0.0,    0.0,    0.0,    0.1,    0.0,    0.1,    0.1,    0.1,   -0.0,    0.0,    0.3,    0.0,    0.1,    0.3,   -0.1,    0.0,   -0.2,    0.0,    0.0,    0.0,  999.0,   -0.1,  999.0,  999.0,  999.0,  999.0,  999.0,  999.0
2012/03/20 13:40,  999.0,  999.0,   -0.5,   -0.1,   -0.1,   -0.2,    0.1,    0.0,    0.0,    0.1,    0.1,   -0.0,   -0.1,   -0.1,   -0.0,   -0.1,    0.2,    0.1,    0.1,    0.2,    0.2,    0.3,    0.4,    0.3,    0.1,    0.1,   -0.0,    0.0,    0.0,    0.1,   -0.1,    0.1,    0.1,   -0.0,    0.1,    0.1,    1.4,    0.3,    0.2,   -0.0,   -0.3,   -0.5,   -0.4,    0.1,    0.0,   -0.0,  999.0,  999.0,    2.7,  999.0,    1.0,    0.1,   -0.1,    0.2,    0.1,    0.2,    0.0,   -0.2,   -0.1,    0.1,   -0.0,   -0.1,    0.1,    0.1,    0.2,   -0.0,    0.1,   -0.0,  999.0,    0.1,    0.3,    0.0,   -0.1,  999.0,  999.0,  999.0,  999.0,  999.0,  999.0,  999.0
2012/03/20 13:50,  999.0,    0.1,   -0.6,    0.3,   -0.0,   -0.0,    0.1,    0.4,    0.2,    0.1,    0.1,    0.2,   -0.4,    0.4,    0.4,    0.3,    0.1,    0.7,    0.5,    0.9,    0.6,    1.4,    1.2,    0.9,    0.4,    0.2,    0.2,    0.1,    0.1,   -0.3,   -0.3,    0.0,    0.0,    0.1,    0.1,    0.1,    0.1,    0.3,    0.0,   -0.0,   -0.2,   -0.2,    0.1,   -0.1,    0.0,    0.2,    0.8,  999.0,  999.0,  999.0,  999.0,  999.0,  999.0,    0.7,    0.3,   -0.1,   -0.1,    0.0,   -0.0,    0.1,    0.3,    0.2,   -0.0,   -0.2,   -0.2,   -0.1,   -0.1,   -0.5,   -0.0,    0.4,   -0.0,  999.0,   -0.0,   -0.1,  999.0,  999.0,  999.0,  999.0,  999.0,  999.0
2012/03/20 14:00,  999.0,  999.0,    0.0,    0.0,  999.0,   -0.0,   -0.0,    0.1,    0.1,   -0.1,   -0.1,    0.1,    0.2,    0.4,    0.3,    0.4,    0.4,    0.1,    0.0,    0.4,    0.8,    0.6,    0.6,    0.1,    0.1,    0.2,    0.2,    0.2,    0.2,    0.1,   -0.2,   -0.1,   -0.2,   -0.4,    0.1,    0.5,  999.0,  999.0,  999.0,  999.0,   -0.2,   -0.0,    0.1,    4.1,    9.7,   14.8,  999.0,  999.0,  999.0,  999.0,    4.0,  999.0,    2.5,    0.6,    0.3,    0.3,    0.2,    0.1,    0.1,    0.1,    0.1,   -0.1,    0.0,    0.0,    0.1,    0.0,    0.0,   -0.1,   -0.1,   -0.1,   -0.0,    0.0,    0.1,    0.1,  999.0,  999.0,  999.0,  999.0,  999.0,  999.0
2012/03/20 14:10,  999.0,    0.0,    0.1,   -0.1,   -0.0,    0.1,   -0.1,   -0.1,    0.0,    0.1,    0.3,    0.0,   -0.1,   -0.0,   -0.1,    0.1,    0.5,    0.4,    0.4,    0.7,    1.1,    0.8,    1.0,    0.7,    0.2,    0.1,    0.2,    0.0,    0.1,    0.1,   -0.2,    0.2,   -0.1,    0.2,  999.0,  999.0,  999.0,  999.0,  999.0,  999.0,  999.0,  999.0,  999.0,  999.0,  999.0,   13.6,   15.3,  999.0,  999.0,  999.0,    3.5,    1.6,   -0.1,    0.0,   -0.1,   -0.1,   -0.3,   -0.2,    0.1,   -0.2,    0.1,    0.0,   -0.3,    0.1,    0.2,    0.1,    0.0,  999.0,  999.0,   -0.3,    0.2,  999.0,    0.2,  999.0,  999.0,  999.0,  999.0,  999.0,  999.0,  999.0
2012/03/20 14:20,  999.0,    0.1,   -0.0,    0.2,   -0.1,    0.0,    0.0,    0.2,   -0.0,   -0.1,    0.0,    0.2,    0.0,    0.6,    0.0,    0.3,   -0.1,    0.1,    0.3,    0.6,    1.2,    0.5,    1.4,    1.3,    1.4,    0.7,    0.5,    0.3,    0.2,    0.2,   -0.0,   -0.0,    0.1,    0.1,    0.1,   -0.2,   -0.1,  999.0,  999.0,  999.0,  999.0,  999.0,  999.0,  999.0,  999.0,  999.0,  999.0,  999.0,  999.0,  999.0,    1.9,    0.1,    0.1,    0.1,   -0.0,    0.1,   -0.3,   -0.0,    0.2,    0.4,    0.0,    0.1,    0.1,    0.1,    0.0,    0.1,   -0.1,    0.1,    0.7,    0.5,    0.1,   -0.1,   -0.1,   -0.1,  999.0,  999.0,  999.0,  999.0,  999.0,  999.0
2012/03/20 14:30,  999.0,    0.1,   -0.0,    0.1,    0.2,    0.1,    0.1,    0.1,   -0.1,   -0.1,   -0.1,   -0.6,   -0.8,   -0.8,   -0.8,   -0.9,   -1.1,   -0.8,    0.1,    1.3,    0.4,   -0.5,   -1.1,   -0.8,   -0.6,   -0.4,   -1.0,    0.2,    0.4,    0.0,   -0.0,    0.4,    0.0,    0.2,   -0.0,   -0.2,   -0.5,    0.3,  999.0,   -0.0,   -0.4,  999.0,  999.0,  999.0,  999.0,  999.0,  999.0,  999.0,   -0.0,    0.3,    0.0,    0.2,    0.3,    0.0,    0.0,    0.1,   -0.2,    0.2,   -0.2,    0.1,    0.1,   -0.2,   -0.0,    0.1,    0.1,    0.3,   -0.3,   -0.1,  999.0,   -0.2,    0.2,   -0.1,   -0.1,    0.2,  999.0,  999.0,  999.0,  999.0,  999.0,  999.0
2012/03/20 14:40,  999.0,   -0.2,    0.2,   -0.1,    0.1,   -0.0,   -0.1,   -0.1,   -0.3,   -0.4,   -1.0,   -1.0,  999.0,    0.8,    0.0,    0.2,   -0.1,    0.3,    0.3,    0.2,   -0.4,   -1.1,   -2.1,   -2.0,   -1.2,   -0.9,   -1.1,   -0.5,   -0.5,   -0.2,   -0.0,    0.4,   -0.2,    0.2,   -0.1,  999.0,  999.0,  999.0,  999.0,  999.0,  999.0,  999.0,  999.0,  999.0,  999.0,    1.7,    0.0,    0.4,    0.1,    0.2,    0.1,    0.1,   -0.1,    0.0,    0.0,    0.0,    0.1,    0.0,    0.1,    0.0,    0.1,    0.1,    0.5,   -0.1,    0.2,   -0.3,    0.0,    0.0,    0.3,    0.2,  999.0,   -0.0,  999.0,  999.0,  999.0,  999.0,  999.0,  999.0,  999.0,  999.0
2012/03/20 14:50,  999.0,    0.1,    0.4,    0.1,    0.0,   -0.3,   -0.3,    0.1,   -0.1,   -0.0,   -0.0,    0.2,    0.2,    0.5,    0.5,    0.1,    0.2,    0.3,    0.0,    0.4,    0.2,    1.3,    0.6,    0.6,    0.3,    0.2,   -0.2,    0.4,    0.2,    0.3,    0.5,    0.6,    0.7,  999.0,  999.0,  999.0,  999.0,  999.0,  999.0,  999.0,  999.0,  999.0,    3.4,    1.0,    0.4,   -0.0,    0.1,   -0.2,   -0.2,    0.1,    0.1,    0.3,    0.3,    0.2,    0.1,   -0.3,    0.1,   -0.0,    0.1,    0.2,    0.2,    0.1,   -0.1,    0.1,   -0.2,   -0.2,    0.1,   -0.1,    0.1,  999.0,   -0.0,   -0.0,    0.3,    0.2,  999.0,  999.0,  999.0,  999.0,  999.0,  999.0
2012/03/20 15:00,  999.0,    0.3,    0.4,    0.1,    0.0,   -0.0,   -0.0,   -0.0,   -0.0,    0.2,    0.3,    0.3,    0.2,    0.1,   -0.3,   -0.3,   -0.2,   -0.1,   -0.0,    0.0,    0.1,    0.2,    0.1,    0.1,    0.4,    0.3,    0.3,    0.3,    0.3,    0.1,    0.1,    0.1,    0.3,    0.2,    0.2,    0.1,   -0.2,  999.0,   -0.3,    0.0,    0.2,    0.1,    0.7,    0.9,    0.4,    0.0,   -0.0,    0.2,    0.2,    0.1,   -0.0,   -0.2,   -0.1,    0.0,   -0.0,   -0.2,    0.0,    0.0,    0.0,   -0.1,    0.1,    0.0,   -0.1,   -0.1,    0.0,    0.1,   -0.0,   -0.2,   -0.4,   -0.2,    0.2,  999.0,   -0.0,  999.0,  999.0,  999.0,  999.0,  999.0,  999.0,  999.0
2012/03/20 15:10,  999.0,   -0.0,    0.2,    0.1,   -0.0,    0.1,   -0.1,  999.0,    0.0,   -0.0,    0.1,    0.0,    0.1,    0.1,    0.0,    0.2,    0.1,    0.1,    0.1,    0.1,    0.1,    0.2,    0.3,   -0.0,   -0.1,    0.2,    0.5,    0.2,    0.1,    0.3,   -0.0,    0.1,    0.1,    0.3,    0.2,   -0.0,    0.2,   -0.0,   -0.1,   -0.1,   -0.2,    0.3,   -0.0,   -0.1,   -0.1,    0.0,    0.1,   -0.1,   -0.2,   -0.1,   -0.0,    0.1,    0.2,   -0.3,   -0.0,   -0.1,   -0.1,   -0.1,    0.1,    0.2,   -0.1,   -0.2,   -0.0,    0.2,   -0.0,    0.1,   -0.1,   -0.1,   -0.1,    0.2,    0.0,   -0.1,  999.0,   -0.1,   -0.1,  999.0,  999.0,  999.0,  999.0,  999.0
2012/03/20 15:20,  999.0,    0.1,    0.1,    0.1,   -0.0,    0.1,   -0.1,   -0.1,    0.1,    0.2,    0.2,    0.0,   -0.0,   -0.0,   -0.0,   -0.0,   -0.0,   -0.1,    0.0,   -0.0,   -0.1,   -0.1,    0.0,   -0.1,   -0.2,    0.1,    0.1,    0.2,    0.0,    0.3,    0.1,   -0.2,    0.1,    0.5,    0.4,   -0.0,    0.3,    0.0,    0.0,   -0.0,   -0.4,   -0.1,   -0.2,    0.2,    0.1,    0.0,    0.1,    0.2,   -0.1,   -0.1,   -0.2,   -0.5,   -0.1,    0.1,   -0.1,    0.0,   -0.2,    0.1,   -0.0,    0.0,    0.2,   -0.3,    0.0,    0.0,    0.0,   -0.2,   -0.0,   -0.1,   -0.1,   -0.3,  999.0,    0.4,    0.2,    0.4,  999.0,  999.0,  999.0,  999.0,  999.0,  999.0
2012/03/20 15:30,  999.0,    0.1,    0.0,   -0.0,    0.0,    0.0,    0.0,    0.0,   -0.3,   -0.5,   -0.2,   -0.1,   -0.2,    0.3,   -0.3,   -0.0,    0.2,   -0.2,   -0.4,    0.2,   -0.1,    0.1,    0.4,    0.4,    0.5,    0.3,    0.7,    0.4,    0.4,    0.3,   -0.0,   -0.3,    0.4,    0.3,    0.1,   -0.0,   -0.0,   -0.2,   -0.1,   -0.0,   -0.3,   -0.1,   -0.1,   -0.2,   -0.2,   -0.1,   -0.1,   -0.3,   -0.2,   -0.3,    0.0,   -0.2,   -0.2,   -0.1,    0.2,    0.4,   -0.0,    0.0,    0.3,    1.1,    0.5,    0.5,    0.4,    0.1,    0.2,   -0.2,   -0.3,  999.0,   -0.0,   -0.2,    0.2,    0.1,   -0.1,   -0.1,  999.0,  999.0,  999.0,  999.0,  999.0,  999.0
2012/03/20 15:40,  999.0,   -0.2,   -0.2,   -0.1,    0.1,    0.0,   -0.0,   -0.1,    0.0,   -0.1,    0.1,    0.0,   -0.2,   -0.1,   -0.0,    0.2,    0.1,    0.3,    0.2,    0.1,    0.3,    0.3,    0.8,    0.9,    0.3,    0.1,    0.1,   -0.1,    0.4,    0.2,    0.2,    0.1,    0.6,    0.5,   -0.2,   -0.0,    0.0,   -0.0,   -0.1,   -0.1,   -0.4,   -0.1,   -0.0,   -0.2,   -0.1,    0.1,   -0.0,    0.0,    0.1,   -0.2,    0.1,   -0.0,    0.1,    0.2,   -0.1,    0.2,    0.4,    1.0,    1.4,    1.1,   -0.3,   -0.0,   -0.0,   -0.1,    0.2,    0.2,    0.2,   -0.1,    0.2,    0.1,    0.1,   -0.2,   -0.1,  999.0,  999.0,  999.0,  999.0,  999.0,  999.0,  999.0
2012/03/20 15:50,  999.0,    0.2,   -0.2,    0.1,    0.1,   -0.1,   -0.0,    0.1,    0.2,    0.0,    0.1,   -0.2,   -0.5,   -0.2,   -0.1,    0.1,    0.1,    0.3,    0.3,    0.4,    0.4,    0.6,    1.0,    0.8,    0.6,    0.3,    0.4,    0.4,    0.0,    0.1,    0.1,    0.2,    0.7,    0.9,    0.5,  999.0,   -0.1,    0.2,    0.1,    0.0,   -0.3,   -0.1,    0.2,    0.0,    0.1,    0.3,   -0.2,   -0.1,    0.0,   -0.1,    0.2,   -0.1,    0.6,    1.4,    1.8,    0.4,    0.3,   -0.2,   -0.3,    0.0,   -0.2,    0.0,   -0.1,    0.1,  999.0,    0.1,   -0.0,   -0.0,  999.0,    0.1,   -0.2,   -0.2,   -0.1,  999.0,  999.0,  999.0,  999.0,  999.0,  999.0,  999.0
2012/03/20 16:00,  999.0,   -0.3,  999.0,    0.2,    0.0,   -0.0,   -0.1,    0.1,  999.0,    0.1,    0.0,    0.0,   -0.0,    0.0,   -0.0,    0.1,    0.1,    0.0,   -0.0,    0.0,    0.2,    0.5,    0.5,    0.1,    0.4,    1.2,    0.4,    0.4,    0.5,    0.1,    0.2,    0.3,    0.6,   -0.3,    0.0,   -0.2,  999.0,    0.1,  999.0,    0.3,   -0.0,   -0.1,   -0.6,   -0.2,    0.1,   -0.3,   -0.2,    0.2,    0.0,    0.1,    0.1,    0.1,    0.2,    0.1,    0.0,   -0.1,    0.1,    0.1,   -0.1,   -0.1,   -0.0,    0.1,    0.2,    0.2,  999.0,   -0.1,   -0.1,   -0.1,  999.0,   -0.3,    0.1,   -0.0,   -0.1,  999.0,  999.0,  999.0,  999.0,  999.0,  999.0,  999.0
2012/03/20 16:10,  999.0,    0.0,   -0.2,    0.0,    0.1,    0.0,   -0.0,    0.1,    0.0,    0.0,    0.1,    0.1,   -0.1,    0.1,    0.0,    0.0,    0.1,    0.1,    0.1,   -0.0,   -0.1,   -0.0,    0.2,    0.3,    0.3,    0.3,    0.1,    0.2,    0.3,    0.0,   -0.1,    0.1,    0.3,    0.2,  999.0,    0.3,   -0.0,    0.1,  999.0,   -0.1,   -0.1,    0.1,    0.2,    0.1,   -0.2,   -0.1,   -0.1,   -0.3,   -0.2,   -0.2,    0.0,    0.3,   -0.2,    0.0,    0.2,   -0.1,    0.1,    0.0,    0.0,   -0.1,    0.0,   -0.0,    0.2,   -0.1,   -0.0,    0.0,    0.1,    0.1,    0.1,  999.0,   -0.1,   -0.3,    0.2,  999.0,  999.0,  999.0,  999.0,  999.0,  999.0,  999.0
2012/03/20 16:20,  999.0,  999.0,    0.2,    0.1,    0.1,   -0.1,   -0.0,   -0.0,    0.0,   -0.1,   -0.2,   -0.2,   -0.1,   -0.0,    0.0,    0.1,    0.1,    0.1,   -0.1,    0.1,    0.1,    0.3,    0.1,    0.3,    0.6,    0.7,    0.4,    0.2,    0.0,    0.0,    0.1,    0.3,   -0.2,  999.0,    0.2,    0.2,   -0.1,    0.0,    0.2,  999.0,    0.1,   -0.4,    0.1,   -0.0,    0.2,    0.2,    0.1,    0.1,   -0.1,   -0.3,   -0.2,    0.0,    0.0,   -0.0,   -0.2,   -0.0,    0.1,    0.2,   -0.1,    0.1,    0.1,   -0.0,   -0.0,    0.0,    0.2,    0.0,    0.4,   -0.3,   -0.2,  999.0,  999.0,    0.0,   -0.2,    0.3,  999.0,  999.0,  999.0,  999.0,  999.0,  999.0
2012/03/20 16:30,  999.0,  999.0,   -0.0,   -0.0,   -0.1,   -0.0,    0.0,    0.0,   -0.2,   -0.4,   -0.2,   -0.2,   -0.1,    0.0,    0.1,    0.1,    0.0,    0.2,    0.1,    0.0,    0.1,    0.1,    0.4,    0.2,    0.5,    0.2,    0.1,    0.2,    0.3,    0.4,    0.4,    0.4,    0.2,  999.0,    0.2,    0.0,   -0.1,    0.4,    0.2,    0.1,   -0.3,   -0.5,   -0.2,   -0.0,    0.0,    0.2,   -0.0,    0.2,    0.1,  999.0,    0.2,   -0.1,   -0.1,    0.1,   -0.1,   -0.3,   -0.1,   -0.1,   -0.2,    0.2,    0.3,   -0.0,    0.1,    0.2,   -0.1,    0.2,  999.0,   -0.1,   -0.2,  999.0,    0.2,   -0.1,   -0.1,  999.0,    0.4,  999.0,  999.0,  999.0,  999.0,  999.0
2012/03/20 16:40,  999.0,  999.0,   -0.0,    0.1,    0.1,    0.4,    0.1,  999.0,   -0.1,   -0.3,    0.0,   -0.1,    0.0,    0.1,    0.1,    0.1,    0.0,    0.2,    0.3,    0.1,    0.1,    0.5,    0.7,    0.9,    0.8,    0.7,    0.4,    0.4,    0.4,    0.7,    0.8,    0.6,    0.0,    0.5,   -0.0,    0.1,   -0.1,  999.0,  999.0,    0.2,   -0.2,    0.5,    0.2,    0.2,    0.0,   -0.2,   -0.2,    0.1,   -0.0,   -0.1,    0.1,   -0.2,    0.2,   -0.1,   -0.1,   -0.3,    0.1,    0.0,    0.0,   -0.4,   -0.1,   -0.0,   -0.2,   -0.0,   -0.0,  999.0,   -0.1,  999.0,   -0.1,   -0.1,    0.2,  999.0,  999.0,  999.0,    0.1,  999.0,  999.0,  999.0,  999.0,  999.0
2012/03/20 16:50,  999.0,  999.0,  999.0,    0.0,    0.1,    0.4,    0.2,   -0.0,   -0.3,    0.3,    0.3,    0.2,    0.5,  999.0,    0.2,    0.6,    0.3,    0.4,    0.6,    0.5,    0.6,    0.9,    1.2,    0.9,    1.0,    0.9,    0.8,    0.2,    0.2,    0.4,    0.3,    0.3,    0.0,    0.4,   -0.1,    0.0,   -0.0,  999.0,   -0.1,   -0.1,   -0.3,   -0.2,   -0.1,    0.2,   -0.0,   -0.1,    0.1,   -0.1,   -0.0,    0.1,   -0.3,   -0.3,    0.0,   -0.0,   -0.0,    0.2,   -0.3,   -0.2,    0.0,    0.2,   -0.3,    0.2,    0.3,   -0.0,   -0.0,   -0.3,  999.0,    0.3,  999.0,  999.0,  999.0,   -0.1,   -0.1,  999.0,   -0.1,  999.0,  999.0,  999.0,  999.0,  999.0
2012/03/20 17:00,  999.0,   -0.0,  999.0,   -0.0,    0.1,    0.2,    0.2,   -0.4,    0.3,    0.9,  999.0,    0.5,   -0.2,    0.3,    0.2,    0.2,   -0.0,    0.2,    0.1,    0.2,    0.5,    0.7,    0.8,    0.8,    0.6,    0.5,    0.5,    0.3,    0.1,    0.2,    0.4,    0.1,    0.1,    0.2,   -0.1,  999.0,    0.2,   -0.2,   -0.1,   -0.1,   -0.2,   -0.1,   -0.1,    0.1,   -0.1,   -0.2,   -0.3,   -0.0,   -0.4,  999.0,   -0.3,   -0.3,   -0.2,   -0.0,    0.1,    0.2,    0.1,    0.4,    0.3,   -0.2,   -0.0,    0.0,    0.3,    0.1,   -0.1,   -0.1,   -0.1,  999.0,    0.5,  999.0,    0.1,  999.0,    0.2,    0.2,  999.0,  999.0,  999.0,  999.0,  999.0,  999.0
2012/03/20 17:10,  999.0,   -0.1,   -0.3,   -0.0,   -0.1,   -0.0,    0.1,   -0.1,   -0.1,    0.1,    0.1,   -0.1,    0.1,    0.1,    0.2,    0.1,    0.2,    0.2,    0.2,    0.4,    0.4,    0.6,    0.5,    0.6,    0.4,    0.2,    0.4,    0.3,    0.2,    0.4,    0.5,    0.2,   -0.2,    0.2,   -0.1,    0.3,  999.0,    0.2,   -0.0,   -0.0,   -0.2,   -0.1,    0.0,   -0.1,   -0.0,   -0.1,    0.0,    0.1,    0.2,    0.3,    0.1,   -0.3,   -0.1,   -0.3,   -0.1,    0.0,   -0.1,   -0.1,   -0.2,   -0.2,    0.1,    0.0,   -0.0,    0.1,    0.2,    0.0,   -0.2,    0.0,  999.0,  999.0,  999.0,  999.0,    0.0,  999.0,  999.0,  999.0,  999.0,  999.0,  999.0,  999.0
2012/03/20 17:20,  999.0,    0.0,   -0.2,    0.0,    0.0,   -0.1,    0.1,    0.1,   -0.0,    0.2,    0.1,    0.0,    0.0,   -0.1,  999.0,    0.3,    0.2,    0.3,    0.1,    0.2,    0.2,    0.2,   -0.0,    0.1,    0.3,    0.4,    0.0,   -0.1,   -0.1,    0.3,    0.6,    0.1,   -0.1,    0.0,    0.3,   -0.2,    0.1,  999.0,    0.0,    0.1,   -0.1,   -0.1,    0.0,   -0.1,   -0.2,    0.3,   -0.2,   -0.1,    0.1,   -0.1,    0.2,   -0.3,   -0.3,   -0.2,    0.4,   -0.0,    0.1,   -0.4,    0.1,   -0.0,   -0.4,   -0.2,  999.0,    0.0,    0.1,   -0.2,    0.1,    0.1,   -0.3,    0.1,  999.0,  999.0,   -0.4,  999.0,  999.0,  999.0,  999.0,  999.0,  999.0,  999.0
2012/03/20 17:30,  999.0,    0.1,   -0.1,   -0.1,    0.1,   -0.1,  999.0,  999.0,    0.1,    0.2,    0.0,   -0.0,    0.1,   -0.1,  999.0,    0.1,  999.0,    0.2,    0.2,    0.4,    0.3,    0.3,    0.2,    0.1,    0.1,    0.2,    0.0,    0.1,    0.1,   -0.1,    0.1,   -0.0,   -0.0,  999.0,  999.0,   -0.1,    0.2,   -0.1,   -0.0,   -0.1,   -0.4,   -0.1,   -0.2,    0.0,    0.1,    0.0,   -0.1,   -0.1,    0.0,    0.1,    0.0,    0.1,  999.0,    0.1,    0.0,    0.3,    0.0,    0.1,    0.1,    0.2,  999.0,    0.3,   -0.1,    0.1,    0.0,    0.2,  999.0,   -0.1,    0.2,    0.1,  999.0,  999.0,  999.0,  999.0,  999.0,  999.0,  999.0,  999.0,  999.0,  999.0
2012/03/20 17:40,  999.0,    0.1,   -0.1,   -0.0,  999.0,   -0.1,   -0.0,    0.0,    0.1,    0.1,   -0.0,   -0.0,    0.2,    0.7,    0.1,   -0.0,   -0.0,    0.1,    0.0,  999.0,    0.1,    0.4,    0.6,    0.1,   -0.1,   -0.1,   -0.1,    0.1,    0.3,    0.1,    0.1,    0.1,    0.2,    0.1,    0.0,   -0.1,    0.0,   -0.0,   -0.2,   -0.2,   -0.2,   -0.0,    0.0,   -0.1,   -0.2,   -0.1,   -0.0,   -0.1,   -0.1,  999.0,   -0.0,    0.2,   -0.2,   -0.1,   -0.0,    0.3,   -0.5,    0.3,   -0.2,    0.0,    0.1,    0.0,    0.0,   -0.1,   -0.1,    0.3,  999.0,  999.0,    0.0,  999.0,  999.0,  999.0,   -0.3,  999.0,  999.0,  999.0,  999.0,  999.0,  999.0,  999.0
2012/03/20 17:50,  999.0,  999.0,   -0.3,    0.0,  999.0,  999.0,  999.0,  999.0,    0.0,    0.0,   -0.0,  999.0,    0.0,    0.0,    0.1,  999.0,    0.1,  999.0,   -0.1,  999.0,  999.0,  999.0,    0.2,    0.2,    0.1,    0.1,    0.1,    0.1,    0.2,    0.1,    0.1,   -0.0,   -0.1,   -0.0,    0.0,   -0.1,    0.0,    0.1,    0.2,   -0.1,   -0.2,   -0.1,   -0.1,   -0.1,   -0.0,    0.1,    0.0,   -0.1,    0.1,    0.1,  999.0,   -0.3,   -0.0,   -0.0,   -0.1,   -0.0,    0.4,    0.2,    0.2,    0.1,   -0.2,    0.7,    0.2,   -0.0,   -0.3,   -0.1,   -0.2,   -0.5,   -0.2,  999.0,   -0.1,   -0.2,   -0.0,  999.0,  999.0,  999.0,  999.0,  999.0,  999.0,  999.0
2012/03/20 18:00,  999.0,    0.0,   -0.2,   -0.1,  999.0,  999.0,  999.0,  999.0,  999.0,   -0.1,    0.0,    0.1,    0.1,    0.0,   -0.0,    0.1,  999.0,    0.1,    0.1,    0.0,    0.1,    0.3,    0.4,    0.3,    0.0,    0.4,    0.2,    0.2,    0.3,    0.8,    0.1,    0.1,   -0.0,    0.1,    0.0,   -0.0,   -0.1,   -0.0,    0.3,    0.1,   -0.2,   -0.2,    0.0,    0.1,   -0.1,    0.0,   -0.1,   -0.3,    0.1,   -0.1,   -0.1,  999.0,  999.0,    0.3,    0.1,   -0.2,   -0.1,    0.1,   -0.3,   -0.3,    0.2,    0.2,   -0.2,    0.3,    0.1,  999.0,    0.0,    0.2,    0.1,    0.1,   -0.1,    0.1,   -0.1,  999.0,    0.1,  999.0,  999.0,  999.0,  999.0,  999.0
2012/03/20 18:10,  999.0,    0.1,   -0.2,    0.1,  999.0,   -0.1,  999.0,   -0.0,   -0.2,   -0.0,    0.1,    0.3,    0.0,    0.2,    0.2,    0.1,    0.0,    0.1,    0.1,    0.2,    0.2,    0.3,    0.6,    0.7,    0.2,    0.1,    0.3,    0.2,    0.3,    0.6,    0.6,   -0.1,    0.2,    0.0,   -0.1,    0.4,   -0.1,   -0.1,   -0.0,    0.0,   -0.3,   -0.4,    0.0,   -0.1,   -0.1,   -0.2,    0.0,   -0.0,   -0.2,    0.2,   -0.3,   -0.1,    0.0,    0.1,   -0.2,    0.3,    0.4,    0.4,    0.2,    0.3,    0.2,   -0.1,    0.1,    0.1,    0.1,    0.1,   -0.0,  999.0,   -0.1,   -0.0,   -0.1,   -0.2,  999.0,  999.0,  999.0,  999.0,  999.0,  999.0,  999.0,  999.0
2012/03/20 18:20,  999.0,    0.0,   -0.1,   -0.2,  999.0,  999.0,   -0.2,   -0.3,    0.1,    0.1,    0.4,    0.3,    0.2,    0.2,    0.0,    0.1,    0.2,    0.2,    0.0,    0.2,    0.3,    0.7,    1.0,    1.1,    0.8,    0.6,    0.4,    0.3,    0.7,    1.6,    0.4,   -0.1,   -0.2,   -0.0,   -0.1,    0.1,    0.2,    0.0,    0.2,    0.0,   -0.5,   -0.3,   -0.1,    0.0,    0.3,   -0.1,   -0.2,   -0.0,   -0.3,    0.1,    0.1,  999.0,    0.3,    0.2,   -0.2,    0.0,    0.1,    0.0,    0.1,    0.0,    0.1,    0.1,    0.1,    0.0,   -0.0,    0.0,    0.0,    0.0,   -0.1,  999.0,    0.1,    0.2,  999.0,    0.2,  999.0,  999.0,  999.0,  999.0,  999.0,  999.0
2012/03/20 18:30,  999.0,   -0.0,   -0.1,   -0.0,  999.0,    0.0,   -0.2,    0.1,   -0.0,   -0.2,   -0.1,    0.1,    0.1,    0.1,   -0.0,    0.1,    0.0,    0.1,   -0.0,    0.0,    0.1,    0.0,    0.3,    0.4,    0.4,    0.5,    0.3,    0.2,    0.0,    0.2,    0.2,    0.0,   -0.1,   -0.1,    0.0,    0.1,    0.1,    0.1,   -0.2,    0.2,   -0.1,   -0.4,    0.0,   -0.0,    0.0,   -0.0,    0.0,   -0.1,    0.1,    0.3,    0.0,    0.2,    0.2,    0.1,   -0.1,  999.0,   -0.0,  999.0,    0.2,   -0.1,   -0.3,   -0.1,   -0.1,    0.1,    0.2,    0.1,    0.2,  999.0,    0.3,    0.2,   -0.0,    0.0,  999.0,    0.2,  999.0,  999.0,  999.0,  999.0,  999.0,  999.0
2012/03/20 18:40,  999.0,    0.0,    0.1,    0.3,    0.1,    0.1,    0.0,    0.3,    0.2,    0.1,    0.2,    0.1,    0.1,    0.3,    0.0,    0.1,    0.1,    0.1,    0.0,    0.0,    0.1,    0.2,    0.0,    0.2,    0.3,    0.4,    0.5,    0.4,    0.2,    0.2,    0.5,   -0.0,    0.1,    0.1,   -0.0,   -0.1,   -0.1,   -0.1,    0.3,    0.2,   -0.2,   -0.1,    0.2,    0.1,   -0.3,    0.1,   -0.0,   -0.2,    0.1,    0.2,    0.1,    0.2,    0.2,    0.0,   -0.2,   -0.0,    0.2,  999.0,  999.0,    0.1,    0.2,   -0.0,   -0.0,   -0.3,    0.1,    0.1,    0.2,   -0.3,   -0.7,   -0.1,    0.2,   -0.1,    0.1,   -0.2,  999.0,  999.0,  999.0,  999.0,  999.0,  999.0
2012/03/20 18:50,  999.0,   -0.1,    0.1,   -0.3,    0.2,   -0.2,    0.0,   -0.1,   -0.1,    0.1,    0.1,    0.2,   -0.0,    0.1,    0.0,    0.1,    0.0,   -0.0,    0.0,    0.0,    0.1,    0.2,    0.1,    0.1,    0.3,    0.5,    0.2,    0.3,    0.4,    0.0,    0.1,   -0.0,    0.1,    0.2,   -0.0,   -0.1,    0.0,    0.0,    0.2,    0.2,   -0.1,    0.0,   -0.0,   -0.2,   -0.1,    0.0,   -0.2,    0.2,   -0.1,   -0.1,   -0.1,    0.1,    0.2,   -0.1,    0.9,    0.1,    0.1,   -0.2,   -0.1,    0.2,    0.1,   -0.1,    0.0,   -0.1,    0.1,    0.2,    0.4,   -0.1,  999.0,    0.3,   -0.1,   -0.2,   -0.0,   -0.0,  999.0,  999.0,  999.0,  999.0,  999.0,  999.0
2012/03/20 19:00,  999.0,   -0.0,    0.1,   -0.4,  999.0,    0.3,  999.0,  999.0,    0.3,    0.1,    0.3,    0.3,    0.2,    0.2,    0.2,    0.1,    0.0,    0.0,    0.0,   -0.0,   -0.1,    0.2,    0.2,    0.2,    0.4,    0.5,    0.3,    0.1,    0.1,    0.1,    0.1,    0.0,    0.0,    0.0,   -0.2,   -0.1,    0.2,    0.1,    0.2,   -0.2,   -0.2,    0.1,   -0.0,    0.1,    0.1,   -0.2,    0.1,    0.2,    0.3,   -0.2,    0.3,  999.0,   -0.0,    0.1,    0.1,   -0.2,   -0.1,    0.2,   -0.2,   -0.3,  999.0,   -0.2,   -0.2,    0.1,   -0.2,   -0.2,   -0.1,    0.1,  999.0,    0.3,    0.1,  999.0,    0.1,  999.0,  999.0,  999.0,  999.0,  999.0,  999.0,  999.0
2012/03/20 19:10,  999.0,   -0.0,   -0.1,    0.2,    0.1,   -0.0,   -0.3,  999.0,   -0.1,    0.0,    0.0,    0.1,    0.0,    0.1,    0.1,    0.1,    0.0,    0.1,    0.3,    0.2,    0.3,    0.4,    0.5,    0.5,    0.5,    0.6,    0.5,    0.3,    0.3,    0.0,    0.2,   -0.0,    0.1,   -0.1,    0.0,   -0.1,   -0.0,   -0.0,   -0.3,    0.2,   -0.1,   -0.1,    0.3,   -0.1,   -0.2,   -0.0,    0.2,   -0.1,  999.0,   -0.3,  999.0,    0.1,    0.0,   -0.0,   -0.3,   -0.3,    0.2,    0.2,   -0.1,   -0.2,   -0.4,    0.2,   -0.1,   -0.0,   -0.1,   -0.1,    0.1,  999.0,   -0.1,    0.2,  999.0,   -0.2,    0.3,   -0.3,    0.0,  999.0,  999.0,  999.0,  999.0,  999.0
2012/03/20 19:20,  999.0,   -0.1,   -0.2,  999.0,  999.0,  999.0,   -0.1,   -0.0,    0.1,    0.1,    0.2,    0.5,    0.2,    0.1,    0.1,    0.1,  999.0,    0.3,    0.2,    0.1,    0.2,    0.1,    0.3,    0.5,    0.4,    0.3,    0.3,    0.3,    0.2,    0.5,    0.3,    0.1,    0.1,    0.2,   -0.2,    0.1,    0.1,    0.1,    0.0,   -0.2,   -0.4,   -0.3,   -0.0,    0.1,    0.1,   -0.2,   -0.1,   -0.2,    0.0,    0.1,   -0.2,   -0.0,   -0.0,   -0.1,   -0.1,   -0.1,   -0.2,   -0.1,   -0.0,   -0.0,    0.3,   -0.1,    0.1,   -0.1,   -0.1,   -0.1,    0.4,  999.0,    0.4,    0.0,    0.1,  999.0,  999.0,  999.0,  999.0,  999.0,  999.0,  999.0,  999.0,  999.0
2012/03/20 19:30,  999.0,    0.0,   -0.1,   -0.0,    0.1,   -0.1,  999.0,    0.0,   -0.0,   -0.1,    0.2,    0.0,    0.0,  999.0,   -0.0,    0.2,   -0.0,    0.0,   -0.1,    0.1,    0.2,    0.1,    0.4,    0.4,    0.6,    0.4,    0.6,    0.2,    0.3,    0.3,    0.7,    0.6,    0.1,   -0.1,    0.2,    0.2,    0.1,    0.0,    0.1,    0.0,   -0.2,   -0.2,   -0.2,    0.0,   -0.1,   -0.0,  999.0,   -0.1,   -0.0,   -0.3,   -0.2,  999.0,   -0.1,   -0.2,    0.2,    0.3,    0.1,   -0.0,    0.0,   -0.2,   -0.1,   -0.1,   -0.1,   -0.0,   -0.2,    0.1,    0.2,   -0.2,   -0.1,   -0.0,   -0.0,  999.0,   -0.0,    0.3,  999.0,  999.0,  999.0,  999.0,  999.0,  999.0
2012/03/20 19:40,  999.0,    0.2,    0.0,   -0.2,   -0.2,   -0.1,  999.0,   -0.2,   -0.0,   -0.0,  999.0,    1.4,    0.5,    0.2,    0.1,  999.0,    0.2,    0.1,    0.1,    0.2,    0.0,    0.1,    0.6,    0.4,    0.3,    0.6,    0.5,    0.4,    0.6,    0.3,    0.2,    0.1,    0.0,   -0.1,    0.0,   -0.1,    0.0,    0.1,    0.1,   -0.2,   -0.2,   -0.1,   -0.1,   -0.1,   -0.1,    0.0,    0.0,    0.1,    0.0,    0.4,   -0.1,   -0.1,   -0.1,   -0.0,   -0.3,    0.2,    0.3,   -0.1,   -0.1,   -0.1,   -0.1,    0.1,    0.1,    0.2,    0.1,    0.2,  999.0,    0.2,   -0.2,   -0.5,   -0.2,   -0.3,    0.1,    0.0,  999.0,  999.0,  999.0,  999.0,  999.0,  999.0
2012/03/20 19:50,  999.0,   -0.1,   -0.2,   -0.0,   -0.1,    0.0,    0.2,    0.0,    0.2,    0.2,    0.6,    0.3,    0.5,    0.3,    0.1,    0.1,   -0.0,   -0.0,    0.1,    0.1,    0.1,    0.3,    0.4,    0.4,    0.2,    0.1,    0.2,    0.2,    0.1,    0.1,    0.1,    0.1,    0.3,    0.2,   -0.1,   -0.1,    0.0,    0.0,    0.0,   -0.1,   -0.2,   -0.3,    0.0,    0.1,    0.0,   -0.0,    0.0,    0.0,    0.1,   -0.2,    0.2,    0.2,   -0.0,   -0.1,   -0.0,   -0.2,   -0.0,   -0.1,    0.1,    0.4,   -0.0,   -0.0,    0.1,    0.2,    0.2,   -0.1,    0.0,    0.1,   -0.1,  999.0,    0.1,   -0.0,    0.3,    0.2,  999.0,  999.0,  999.0,  999.0,  999.0,  999.0
2012/03/20 20:00,  999.0,   -0.2,   -0.2,    0.1,    0.1,   -0.0,   -0.2,   -0.1,    0.0,    0.1,    0.0,   -0.1,   -0.4,   -0.3,   -0.1,   -0.2,   -0.1,   -0.0,    0.0,    0.1,    0.0,    0.2,    0.4,    0.6,    0.1,    0.2,    0.2,    0.2,   -0.0,    0.2,    0.3,    0.1,    0.1,   -0.1,   -0.2,    0.0,   -0.1,   -0.1,   -0.1,    0.1,   -0.1,   -0.1,    0.0,    0.1,    0.2,    0.0,   -0.1,   -0.0,   -0.0,    0.3,  999.0,    0.0,   -0.1,    0.0,    0.3,    0.1,    0.1,    0.3,   -0.2,   -0.1,    0.2,   -0.2,   -0.1,    0.1,    0.0,    0.1,   -0.2,   -0.1,  999.0,   -0.2,    0.0,  999.0,    0.2,    0.1,  999.0,  999.0,  999.0,  999.0,  999.0,  999.0
2012/03/20 20:10,  999.0,   -0.2,   -0.2,   -0.2,   -0.1,   -0.1,    0.2,    0.0,   -0.1,    0.1,    0.2,    0.1,    0.0,   -0.2,   -0.4,   -0.3,   -0.2,   -0.1,    0.0,   -0.1,   -0.3,    0.1,   -0.0,    0.2,   -0.0,   -0.0,   -0.2,   -0.1,   -0.1,   -0.0,   -0.0,    0.4,    0.1,    0.1,   -0.6,  999.0,    0.1,    0.3,   -0.1,    0.0,   -0.2,   -0.1,    0.1,   -0.0,   -0.1,    0.1,    0.2,  999.0,   -0.0,    0.1,    0.2,  999.0,   -0.0,    0.4,   -0.1,   -0.0,   -0.1,   -0.2,   -0.1,   -0.0,   -0.1,    0.1,   -0.1,  999.0,   -0.1,    0.2,    0.6,    0.2,   -0.1,    0.1,    0.1,    0.3,   -0.1,  999.0,  999.0,  999.0,  999.0,  999.0,  999.0,  999.0
2012/03/20 20:20,  999.0,    0.1,   -0.5,   -0.1,   -0.1,   -0.0,   -0.0,   -0.2,  999.0,    0.1,   -0.1,   -0.2,   -0.2,   -0.2,   -0.1,   -0.1,   -0.1,   -0.1,   -0.2,   -0.1,   -0.1,   -0.3,   -0.1,    0.1,    0.1,    0.2,    0.1,    0.2,    0.1,    0.1,    0.2,    0.3,  999.0,    0.3,    0.3,  999.0,   -0.3,   -0.2,  999.0,   -0.2,   -0.7,   -0.7,  999.0,   -0.2,    0.3,    0.3,    0.0,    0.2,    0.2,   -0.1,    0.0,    0.1,  999.0,    0.3,    0.4,   -0.1,    0.1,   -0.1,   -0.1,    0.1,   -0.1,   -0.3,   -0.2,   -0.1,   -0.1,   -0.1,   -0.2,    0.6,   -0.1,  999.0,   -0.1,   -0.2,   -0.1,   -0.0,  999.0,  999.0,  999.0,  999.0,  999.0,  999.0
2012/03/20 20:30,  999.0,   -0.1,   -0.2,   -0.0,   -0.1,   -0.1,    0.1,    0.0,   -0.2,    0.0,   -0.3,    0.1,   -0.2,   -0.2,   -0.1,   -0.0,    0.0,   -0.1,   -0.2,   -0.2,   -0.0,    0.0,   -0.1,    0.1,   -0.0,   -0.2,   -0.1,   -0.1,   -0.2,    0.1,   -0.0,   -0.0,    0.2,   -0.0,  999.0,  999.0,  999.0,   -0.1,  999.0,    0.1,   -0.9,  999.0,  999.0,    0.2,    0.1,    0.0,  999.0,   -0.0,   -0.4,   -0.2,  999.0,    0.2,    0.1,    0.2,    0.1,    0.2,   -0.2,   -0.0,   -0.2,   -0.3,   -0.2,    0.0,   -0.0,   -0.2,   -0.2,   -0.2,   -0.5,   -0.2,   -0.4,  999.0,   -0.0,  999.0,    0.2,  999.0,  999.0,  999.0,  999.0,  999.0,  999.0,  999.0
2012/03/20 20:40,  999.0,   -0.2,   -0.1,   -0.8,   -0.6,    0.2,   -0.6,    0.8,    0.4,    0.2,   -0.1,    0.4,    0.5,   -0.3,    0.5,    0.4,   -0.0,    0.2,   -0.1,   -0.0,    0.0,    0.1,    0.0,    0.2,   -0.0,    0.2,   -0.1,    0.1,    0.0,    0.1,   -0.1,   -0.1,  999.0,    0.3,  999.0,   -0.5,  999.0,  999.0,  999.0,   -0.3,   -0.1,  999.0,  999.0,    0.0,  999.0,   -0.1,   -0.3,    0.1,   -0.4,   -0.1,    0.2,    0.2,    0.1,    0.0,    0.0,    0.2,   -0.0,  999.0,  999.0,   -0.3,    0.1,  999.0,   -0.1,  999.0,    0.1,    0.4,    0.3,  999.0,   -0.2,   -0.1,   -0.2,    0.2,    0.2,  999.0,  999.0,  999.0,  999.0,  999.0,  999.0,  999.0
2012/03/20 20:50,  999.0,   -0.1,   -0.2,    0.2,    0.3,    0.1,    0.0,    0.1,    0.2,    0.7,   -0.0,    0.0,   -0.1,   -0.1,   -0.0,    0.1,   -0.2,   -0.2,   -0.2,   -0.3,   -0.4,   -0.1,   -0.3,   -0.1,   -0.0,   -0.2,   -0.0,   -0.1,    0.0,    0.2,    0.3,   -0.1,   -0.1,    0.3,    0.3,    0.3,    0.0,  999.0,  999.0,  999.0,   -0.1,   -0.2,   -0.1,   -0.1,   -0.2,   -0.1,    0.1,    0.0,   -0.1,   -0.2,    0.0,    0.3,   -0.1,   -0.4,   -0.3,   -0.2,  999.0,    0.1,    0.1,    0.5,    0.3,   -0.1,    0.1,   -0.3,   -0.2,  999.0,    0.1,  999.0,   -0.1,    0.0,   -0.2,    0.1,  999.0,   -0.2,  999.0,  999.0,  999.0,  999.0,  999.0,  999.0
2012/03/20 21:00,  999.0,   -0.5,   -0.8,   -0.2,   -0.0,   -0.1,   -0.3,    3.2,   -0.2,    0.2,    1.8,    1.9,   -0.0,   -0.1,   -0.8,   -1.0,   -1.3,   -0.6,   -0.3,   -0.2,   -0.4,   -0.4,   -0.2,   -0.0,    0.1,    0.1,   -0.2,    0.0,    0.2,    0.2,   -0.2,   -0.0,    0.2,    0.1,  999.0,   -0.1,  999.0,  999.0,  999.0,  999.0,  999.0,   -0.2,   -0.3,  999.0,  999.0,  999.0,   -0.0,   -0.1,    0.1,   -0.0,  999.0,  999.0,  999.0,   -0.1,   -0.2,   -0.1,   -0.0,   -0.2,    0.2,   -0.1,    0.1,    0.0,    0.3,   -0.3,  999.0,  999.0,  999.0,    0.5,   -0.1,    0.0,    0.1,    0.1,    0.2,    0.1,    0.3,  999.0,  999.0,  999.0,  999.0,  999.0
2012/03/20 21:10,  999.0,  999.0,  999.0,  999.0,  999.0,  999.0,  999.0,  999.0,   12.4,   10.1,   19.2,   15.3,   16.9,   16.7,   16.0,   14.4,  999.0,    4.4,  999.0,  999.0,  999.0,   -0.2,   -0.6,   -0.0,  999.0,   -0.0,   -0.1,  999.0,    0.2,   -0.3,  999.0,  999.0,  999.0,  999.0,  999.0,  999.0,  999.0,  999.0,  999.0,  999.0,  999.0,  999.0,  999.0,   -0.0,  999.0,  999.0,  999.0,  999.0,  999.0,  999.0,  999.0,  999.0,  999.0,  999.0,  999.0,  999.0,  999.0,  999.0,  999.0,   -0.7,  999.0,  999.0,   -0.4,  999.0,  999.0,  999.0,  999.0,  999.0,  999.0,  999.0,  999.0,  999.0,  999.0,    0.1,   -0.2,  999.0,  999.0,  999.0,  999.0,  999.0
2012/03/20 21:20,  999.0,  999.0,   12.3,   10.5,   11.2,   10.9,    9.6,   16.4,   13.0,   14.0,   13.3,  999.0,  999.0,    9.2,    9.1,   14.0,   14.0,   14.3,  999.0,  999.0,  999.0,  999.0,  999.0,   -0.6,   -0.1,    0.0,    0.0,    0.1,  999.0,  999.0,    0.0,   -0.1,  999.0,  999.0,  999.0,  999.0,  999.0,  999.0,  999.0,  999.0,  999.0,  999.0,  999.0,  999.0,  999.0,  999.0,  999.0,    0.4,  999.0,  999.0,  999.0,  999.0,    0.1,    0.2,   -0.0,  999.0,  999.0,  999.0,  999.0,  999.0,   -0.3,  999.0,   -0.0,   -0.1,   -0.0,    0.2,  999.0,  999.0,    0.0,    0.2,   -0.1,  999.0,  999.0,  999.0,  999.0,  999.0,  999.0,  999.0,  999.0,  999.0
2012/03/20 21:30,  999.0,  999.0,  999.0,  999.0,    5.0,    6.9,    6.4,    6.9,    5.1,    6.8,    7.1,    8.3,    8.6,    9.5,   10.1,   11.7,   11.8,   12.7,   13.9,   10.2,   10.4,    9.3,  999.0,   -0.0,   -0.2,   -0.1,   -0.1,    0.2,    0.1,   -0.5,    0.2,   -0.1,   -0.1,    0.1,   -0.1,   -0.2,  999.0,   -0.1,  999.0,   -0.3,  999.0,  999.0,  999.0,  999.0,  999.0,  999.0,    0.3,    0.1,  999.0,    0.3,  999.0,   -0.4,    0.1,   -0.3,    0.2,  999.0,  999.0,  999.0,   -0.1,    0.2,  999.0,    0.2,   -0.2,    0.0,   -0.1,    0.5,   -0.1,   -0.3,    0.2,    0.2,    0.1,    0.1,   -0.2,  999.0,  999.0,  999.0,  999.0,  999.0,  999.0,  999.0
2012/03/20 21:40,  999.0,    0.2,    1.2,    0.8,    1.1,   -0.1,    0.3,    0.7,    0.4,    0.6,    0.8,    1.3,    2.0,    2.8,    2.4,    3.7,    2.2,    2.8,    4.2,  999.0,    4.2,  999.0,  999.0,  999.0,  999.0,    2.1,    0.9,  999.0,    1.6,  999.0,  999.0,  999.0,    0.2,    0.3,  999.0,  999.0,  999.0,  999.0,  999.0,  999.0,  999.0,  999.0,  999.0,    0.3,  999.0,  999.0,  999.0,    0.1,    0.2,  999.0,  999.0,  999.0,  999.0,  999.0,  999.0,  999.0,   -0.1,   -0.1,  999.0,   -0.1,    0.1,  999.0,  999.0,  999.0,  999.0,    0.2,    0.5,  999.0,  999.0,   -0.1,  999.0,   -0.3,  999.0,    0.1,  999.0,  999.0,  999.0,  999.0,  999.0,  999.0
2012/03/20 21:50,  999.0,  999.0,  999.0,  999.0,  999.0,  999.0,  999.0,    2.0,    2.4,    7.2,    7.6,    5.3,    4.9,    5.7,    6.8,    6.5,    9.8,   11.4,   11.3,   11.7,   11.0,   10.2,   12.0,    5.1,    1.2,    2.0,   -0.4,   -1.0,   -0.5,   -0.2,    0.0,  999.0,  999.0,    0.3,  999.0,  999.0,  999.0,   -0.1,  999.0,  999.0,    0.1,   -0.1,   -0.0,   -0.4,   -0.1,    0.1,   -0.0,    0.1,   -0.0,  999.0,  999.0,    0.1,    0.1,    0.1,  999.0,    0.0,    0.0,   -0.1,    0.2,   -0.3,    0.1,  999.0,   -0.5,   -0.4,    0.3,  999.0,  999.0,   -0.2,  999.0,    0.0,  999.0,    0.0,  999.0,  999.0,    0.0,  999.0,  999.0,  999.0,  999.0,  999.0
2012/03/20 22:00,  999.0,    0.5,   -1.0,    2.3,    1.6,  999.0,  999.0,    4.0,    5.1,    1.7,    3.7,    0.7,    3.9,    2.8,    1.8,   -0.1,    0.4,    0.2,    0.3,  999.0,   -1.3,    0.5,    0.6,    0.2,   -0.5,   -0.2,    0.3,   -0.3,   -0.0,   -0.1,   -0.2,  999.0,    0.2,    0.2,   -0.2,    0.2,  999.0,  999.0,    0.0,    0.1,   -0.4,  999.0,   -0.2,    0.0,   -0.1,    0.0,    0.0,  999.0,    0.1,   -0.2,    0.4,    0.3,    0.0,   -0.1,    0.1,   -0.1,    0.1,   -0.3,    0.2,  999.0,  999.0,    0.1,    0.2,  999.0,  999.0,  999.0,   -0.4,    0.1,   -0.1,   -0.1,   -0.1,   -0.0,    0.3,    0.1,   -0.1,  999.0,  999.0,  999.0,  999.0,  999.0
2012/03/20 22:10,  999.0,  999.0,   -0.8,   -0.6,  999.0,  999.0,   -3.0,  999.0,   -1.7,  999.0,  999.0,  999.0,    1.6,  999.0,   -1.9,   -2.8,   -3.6,   -3.1,   -0.7,    0.4,   -0.4,   -0.8,   -0.7,    0.2,   -0.0,    0.2,   -0.1,   -0.3,   -0.2,   -0.6,   -0.1,    0.1,    0.3,    0.3,    0.0,  999.0,  999.0,  999.0,  999.0,   -0.4,  999.0,  999.0,  999.0,  999.0,  999.0,  999.0,    0.4,  999.0,  999.0,  999.0,    0.0,  999.0,  999.0,   -0.2,   -0.3,   -0.1,  999.0,   -0.3,   -0.0,  999.0,  999.0,  999.0,  999.0,  999.0,  999.0,  999.0,  999.0,  999.0,  999.0,  999.0,  999.0,  999.0,  999.0,  999.0,   -0.2,  999.0,  999.0,  999.0,  999.0,  999.0
2012/03/20 22:20,  999.0,   -1.0,   -1.5,   -0.4,   -0.5,  999.0,   -2.0,   -2.4,   -2.3,   -2.9,  999.0,   -1.7,    0.9,  999.0,    3.0,    2.7,    1.3,   -0.1,    0.4,    0.2,    1.1,  999.0,  999.0,    1.0,    0.3,  999.0,    1.2,    0.4,  999.0,  999.0,  999.0,  999.0,   -0.0,    0.1,  999.0,  999.0,  999.0,  999.0,  999.0,  999.0,  999.0,  999.0,  999.0,  999.0,  999.0,  999.0,    0.1,    0.3,    0.1,  999.0,  999.0,   -0.0,  999.0,    0.0,   -0.0,   -0.3,    0.2,   -0.5,  999.0,    0.1,   -0.1,    0.1,   -0.2,   -0.0,   -0.1,  999.0,  999.0,  999.0,  999.0,  999.0,  999.0,  999.0,  999.0,  999.0,  999.0,  999.0,  999.0,  999.0,  999.0,  999.0
2012/03/20 22:30,  999.0,  999.0,  999.0,    0.8,   -0.1,   -1.0,    0.1,  999.0,    0.4,   -0.4,  999.0,  999.0,  999.0,    0.5,    1.2,    0.6,    0.1,    0.4,    0.2,  999.0,   -1.1,   -0.4,   -0.0,   -0.2,    0.0,   -0.1,   -0.0,   -0.1,   -0.1,   -0.1,   -0.1,   -0.3,  999.0,   -0.0,   -0.2,   -0.2,  999.0,  999.0,   -0.1,  999.0,  999.0,  999.0,  999.0,  999.0,  999.0,  999.0,  999.0,   -0.0,  999.0,    0.2,   -0.1,   -0.2,    0.1,   -0.1,  999.0,    0.0,    0.4,    0.0,    0.2,    0.0,   -0.1,   -0.2,   -0.1,    0.1,   -0.3,  999.0,  999.0,  999.0,  999.0,  999.0,  999.0,  999.0,    0.0,  999.0,  999.0,  999.0,  999.0,  999.0,  999.0,  999.0
2012/03/20 22:40,  999.0,  999.0,   -0.0,   -0.2,   -0.0,    0.0,   -0.1,    0.0,   -0.2,   -0.0,   -0.0,   -0.2,    0.3,    0.3,    0.4,    0.6,    0.4,    0.2,    0.0,   -0.1,   -0.0,   -0.2,   -0.6,   -0.6,   -0.4,   -0.0,   -0.0,   -0.0,   -0.1,   -0.0,   -0.2,   -0.1,   -0.0,   -0.3,  999.0,  999.0,   -0.3,  999.0,  999.0,  999.0,  999.0,  999.0,  999.0,    0.0,  999.0,    0.1,  999.0,    0.0,   -0.1,  999.0,  999.0,   -0.1,   -0.3,    0.3,  999.0,    0.1,    0.3,    0.2,    0.0,   -0.3,    0.2,  999.0,   -0.2,    0.1,   -0.1,   -0.2,  999.0,  999.0,  999.0,  999.0,  999.0,  999.0,  999.0,  999.0,  999.0,  999.0,  999.0,  999.0,  999.0,  999.0
2012/03/20 22:50,  999.0,  999.0,    0.3,    0.1,   -0.0,    0.0,    0.1,   -0.1,   -0.1,   -0.2,    0.4,    0.2,    0.1,   -0.0,   -0.1,    0.1,    0.2,    0.1,    0.1,    0.1,   -0.0,   -0.1,   -0.1,   -0.3,   -0.3,   -0.2,    0.0,   -0.1,   -0.1,   -0.1,   -0.1,   -0.0,   -0.2,    0.0,  999.0,    0.4,  999.0,  999.0,    0.1,  999.0,   -0.9,    0.1,  999.0,    0.1,    0.1,    0.2,    0.0,    0.2,    0.2,   -0.2,   -0.2,    0.1,   -0.1,    0.1,    0.1,   -0.2,   -0.2,    0.1,   -0.1,  999.0,  999.0,   -0.2,   -0.1,    0.6,   -0.2,   -0.2,    0.1,  999.0,  999.0,  999.0,  999.0,  999.0,  999.0,  999.0,  999.0,  999.0,  999.0,  999.0,  999.0,  999.0
2012/03/20 23:00,  999.0,  999.0,    0.3,    0.2,   -0.1,    0.2,    0.0,   -0.1,    0.0,    0.0,    0.2,    0.0,    0.0,    0.4,    0.5,   -0.0,   -0.0,    0.1,   -0.0,    0.0,    0.0,    0.2,    0.4,    0.3,    0.1,    0.0,   -0.3,   -0.2,    0.1,    0.0,   -0.2,   -0.2,   -0.1,    0.3,    0.0,  999.0,   -0.0,  999.0,  999.0,   -0.3,   -0.1,  999.0,   -0.0,    0.2,   -0.1,  999.0,  999.0,  999.0,  999.0,    0.0,   -0.1,   -0.1,    0.1,   -0.3,    0.2,  999.0,   -0.3,   -0.2,  999.0,    0.2,  999.0,    0.1,  999.0,   -0.0,  999.0,    0.3,   -0.5,  999.0,  999.0,  999.0,   -0.1,  999.0,  999.0,  999.0,  999.0,  999.0,  999.0,  999.0,  999.0,  999.0
2012/03/20 23:10,  999.0,  999.0,    0.1,    0.1,    0.0,    0.0,   -0.0,    0.1,    0.1,    0.3,    0.4,   -0.0,   -0.2,    0.1,    0.3,   -0.0,    0.1,    0.2,    0.2,    0.0,    0.0,   -0.0,   -0.1,    0.1,   -0.0,   -0.2,   -0.1,   -0.0,   -0.1,    0.0,   -0.0,   -0.2,    0.1,    0.0,  999.0,  999.0,    0.2,   -0.0,    0.0,    0.1,   -0.2,   -0.2,   -0.1,   -0.6,   -0.0,   -0.2,  999.0,   -0.1,    0.1,   -0.1,  999.0,   -0.4,   -0.2,   -0.2,   -0.0,   -0.1,    0.3,  999.0,    0.5,  999.0,   -0.7,    0.1,  999.0,    0.1,    0.2,    0.0,  999.0,    0.1,   -0.2,  999.0,    0.2,  999.0,  999.0,  999.0,  999.0,  999.0,  999.0,  999.0,  999.0,  999.0
2012/03/20 23:20,  999.0,  999.0,   -0.0,   -0.0,    0.0,    0.1,    0.1,    0.0,    0.2,    0.2,   -0.3,   -0.1,   -0.1,    0.1,    0.2,    0.2,    0.2,    0.1,    0.0,    0.1,   -0.1,   -0.1,   -0.2,   -0.1,    0.0,   -0.2,   -0.2,   -0.1,    0.2,   -0.1,   -0.2,   -0.1,    0.0,   -0.1,   -0.2,    0.2,  999.0,    0.2,   -0.1,   -0.1,   -0.2,   -0.3,    0.1,   -0.0,   -0.2,    0.2,  999.0,   -0.3,   -0.2,    0.3,    0.1,  999.0,   -0.1,   -0.0,    0.1,   -0.0,    0.4,  999.0,  999.0,    0.1,    0.3,   -0.1,   -0.6,   -0.3,   -0.1,  999.0,  999.0,  999.0,  999.0,  999.0,  999.0,  999.0,  999.0,  999.0,  999.0,  999.0,  999.0,  999.0,  999.0,  999.0
2012/03/20 23:30,  999.0,  999.0,   -0.3,   -0.2,   -0.1,   -0.0,   -0.0,    0.1,    0.1,    0.3,    0.4,    0.3,    0.1,    0.2,    0.3,    0.4,    0.4,    0.3,    0.3,    0.2,    0.1,    0.3,    0.2,    0.5,    0.3,    0.1,    0.0,   -0.1,    0.0,    0.1,    0.1,    0.0,   -0.1,   -0.0,  999.0,   -0.4,    0.2,  999.0,    0.1,    0.1,   -0.4,  999.0,    0.1,   -0.2,   -0.1,    0.1,   -0.2,    0.3,    1.1,   -0.0,   -0.0,   -0.2,   -0.0,   -0.1,    0.2,    0.2,    0.1,    0.2,  999.0,   -0.1,  999.0,   -0.1,    0.9,   -0.1,   -0.3,  999.0,  999.0,  999.0,  999.0,  999.0,  999.0,  999.0,  999.0,  999.0,  999.0,  999.0,  999.0,  999.0,  999.0,  999.0
2012/03/20 23:40,  999.0,   -0.0,   -0.1,   -0.1,    0.1,    0.0,    0.1,    0.0,    0.0,    0.1,    0.1,    0.4,    0.4,    0.2,   -0.0,   -0.1,    0.1,    0.3,   -0.0,    0.1,   -0.2,   -0.1,    0.2,    0.2,    0.2,    0.3,   -0.2,   -1.2,   -0.1,    0.1,    0.2,    0.6,   -0.1,   -0.0,  999.0,  999.0,  999.0,  999.0,    0.1,    0.0,   -0.2,   -0.0,  999.0,  999.0,    0.0,    0.4,    0.3,  999.0,  999.0,    0.1,  999.0,    0.4,    0.5,   -0.2,    0.1,   -0.1,   -0.3,   -0.3,   -0.0,   -0.0,    0.2,    0.3,  999.0,  999.0,  999.0,  999.0,  999.0,  999.0,  999.0,  999.0,  999.0,  999.0,  999.0,  999.0,  999.0,  999.0,  999.0,  999.0,  999.0,  999.0
2012/03/20 23:50,  999.0,   -0.0,    0.3,    0.1,    0.0,   -0.0,   -0.1,    0.1,   -0.1,   -0.7,   -0.3,    0.4,    0.1,    0.9,    1.5,    1.4,    1.1,    1.0,    0.3,    0.2,   -0.2,    0.3,   -0.5,    0.5,    0.2,   -0.0,   -0.2,    0.6,    0.4,   -0.1,    0.1,   -0.0,   -0.4,  999.0,  999.0,  999.0,  999.0,  999.0,  999.0,   -0.2,   -0.4,    0.0,   -0.0,   -0.0,   -0.0,   -0.2,  999.0,   -0.1,   -0.1,  999.0,  999.0,   -0.6,   -0.0,  999.0,  999.0,    0.1,   -0.6,  999.0,  999.0,  999.0,  999.0,  999.0,  999.0,  999.0,  999.0,  999.0,  999.0,  999.0,  999.0,  999.0,  999.0,  999.0,  999.0,  999.0,  999.0,  999.0,  999.0,  999.0,  999.0,  999.0
